| time (UTC) | temp F | wind direction | speed MPH | gust MPH | rain 1hr in | rain 24hr in | rain mn in | humidity % | barometer mb |
| 20260509224603 | 51 | 238 | 4.0 | 8.0 | 0.00 | 0.00 | 0.00 | 78 | 1020.8 |
| 20260509224503 | 51 | 236 | 3.0 | 9.0 | 0.00 | 0.00 | 0.00 | 78 | 1020.5 |
| 20260509224403 | 51 | 238 | 4.0 | 11.0 | 0.00 | 0.00 | 0.00 | 78 | 1020.7 |
| 20260509224305 | 51 | 240 | 4.0 | 11.0 | 0.00 | 0.00 | 0.00 | 78 | 1020.7 |
| 20260509224206 | 51 | 239 | 4.0 | 11.0 | 0.00 | 0.00 | 0.00 | 78 | 1020.7 |
| 20260509224103 | 51 | 246 | 5.0 | 11.0 | 0.00 | 0.00 | 0.00 | 78 | 1020.6 |
| 20260509224004 | 51 | 248 | 6.0 | 11.0 | 0.00 | 0.00 | 0.00 | 78 | 1020.6 |
| 20260509223904 | 51 | 240 | 3.0 | 11.0 | 0.00 | 0.00 | 0.00 | 78 | 1020.6 |
| 20260509223804 | 51 | 245 | 4.0 | 9.0 | 0.00 | 0.00 | 0.00 | 78 | 1020.8 |
| 20260509223704 | 51 | 246 | 4.0 | 9.0 | 0.00 | 0.00 | 0.00 | 78 | 1020.6 |
| 20260509223604 | 51 | 243 | 5.0 | 9.0 | 0.00 | 0.00 | 0.00 | 78 | 1020.8 |
| 20260509223504 | 51 | 247 | 4.0 | 9.0 | 0.00 | 0.00 | 0.00 | 78 | 1020.5 |
| 20260509223407 | 51 | 256 | 4.0 | 9.0 | 0.00 | 0.00 | 0.00 | 78 | 1020.5 |
| 20260509223304 | 51 | 252 | 4.0 | 9.0 | 0.00 | 0.00 | 0.00 | 78 | 1020.5 |
| 20260509223204 | 51 | 253 | 4.0 | 9.0 | 0.00 | 0.00 | 0.00 | 78 | 1020.5 |
| 20260509223104 | 51 | 254 | 4.0 | 9.0 | 0.00 | 0.00 | 0.00 | 78 | 1020.6 |
| 20260509222904 | 51 | 250 | 5.0 | 9.0 | 0.00 | 0.00 | 0.00 | 78 | 1020.4 |
| 20260509222804 | 51 | 246 | 4.0 | 7.0 | 0.00 | 0.00 | 0.00 | 79 | 1020.6 |
| 20260509222607 | 51 | 234 | 3.0 | 8.0 | 0.00 | 0.00 | 0.00 | 79 | 1020.5 |
| 20260509222507 | 51 | 231 | 4.0 | 8.0 | 0.00 | 0.00 | 0.00 | 79 | 1020.5 |
| 20260509222404 | 51 | 231 | 2.0 | 8.0 | 0.00 | 0.00 | 0.00 | 79 | 1020.5 |
| 20260509222307 | 51 | 233 | 2.0 | 8.0 | 0.00 | 0.00 | 0.00 | 79 | 1020.5 |
| 20260509222204 | 51 | 237 | 5.0 | 8.0 | 0.00 | 0.00 | 0.00 | 79 | 1020.3 |
| 20260509222107 | 51 | 239 | 3.0 | 6.0 | 0.00 | 0.00 | 0.00 | 79 | 1020.2 |
| 20260509222004 | 51 | 241 | 3.0 | 6.0 | 0.00 | 0.00 | 0.00 | 79 | 1020.4 |
| 20260509221903 | 51 | 238 | 2.0 | 6.0 | 0.00 | 0.00 | 0.00 | 79 | 1020.4 |
| 20260509221804 | 51 | 238 | 3.0 | 6.0 | 0.00 | 0.00 | 0.00 | 79 | 1020.2 |
| 20260509221604 | 51 | 235 | 3.0 | 6.0 | 0.00 | 0.00 | 0.00 | 79 | 1020.4 |
| 20260509221504 | 51 | 233 | 2.0 | 6.0 | 0.00 | 0.00 | 0.00 | 79 | 1020.4 |
| 20260509221417 | 51 | 238 | 3.0 | 6.0 | 0.00 | 0.00 | 0.00 | 79 | 1020.5 |
| 20260509221404 | 51 | 241 | 4.0 | 6.0 | 0.00 | 0.00 | 0.00 | 79 | 1020.3 |
| 20260509221307 | 51 | 245 | 3.0 | 7.0 | 0.00 | 0.00 | 0.00 | 79 | 1020.2 |
| 20260509221104 | 51 | 252 | 4.0 | 7.0 | 0.00 | 0.00 | 0.00 | 79 | 1020.3 |
| 20260509221003 | 51 | 257 | 3.0 | 7.0 | 0.00 | 0.00 | 0.00 | 79 | 1020.4 |
| 20260509220803 | 51 | 249 | 4.0 | 7.0 | 0.00 | 0.00 | 0.00 | 79 | 1020.1 |
| 20260509220703 | 51 | 252 | 4.0 | 7.0 | 0.00 | 0.00 | 0.00 | 79 | 1020.2 |
| 20260509220603 | 51 | 244 | 4.0 | 7.0 | 0.00 | 0.00 | 0.00 | 79 | 1020.2 |
| 20260509220505 | 51 | 239 | 3.0 | 7.0 | 0.00 | 0.00 | 0.00 | 79 | 1020.2 |
| 20260509220413 | 51 | 237 | 2.0 | 9.0 | 0.00 | 0.00 | 0.00 | 79 | 1019.9 |
| 20260509220403 | 51 | 236 | 2.0 | 9.0 | 0.00 | 0.00 | 0.00 | 79 | 1019.9 |
| 20260509220304 | 51 | 231 | 2.0 | 9.0 | 0.00 | 0.00 | 0.00 | 79 | 1020.1 |
| 20260509220018 | 51 | 234 | 4.0 | 9.0 | 0.00 | 0.00 | 0.00 | 79 | 1020.3 |
| 20260509220005 | 51 | 235 | 4.0 | 9.0 | 0.00 | 0.00 | 0.00 | 79 | 1020.3 |
| 20260509215905 | 51 | 242 | 5.0 | 9.0 | 0.00 | 0.00 | 0.00 | 79 | 1020.1 |
| 20260509215713 | 51 | 246 | 5.0 | 9.0 | 0.00 | 0.00 | 0.00 | 79 | 1020.2 |
| 20260509215605 | 51 | 243 | 4.0 | 8.0 | 0.00 | 0.00 | 0.00 | 79 | 1020.2 |
| 20260509215405 | 51 | 243 | 5.0 | 8.0 | 0.00 | 0.00 | 0.00 | 79 | 1020.1 |
| 20260509215306 | 51 | 245 | 4.0 | 8.0 | 0.00 | 0.00 | 0.00 | 79 | 1019.9 |
| 20260509215105 | 51 | 247 | 4.0 | 11.0 | 0.00 | 0.00 | 0.00 | 79 | 1020.0 |
| 20260509215004 | 51 | 247 | 3.0 | 11.0 | 0.00 | 0.00 | 0.00 | 79 | 1020.1 |
| 20260509214917 | 51 | 243 | 4.0 | 11.0 | 0.00 | 0.00 | 0.00 | 79 | 1020.1 |
| 20260509214816 | 51 | 239 | 5.0 | 11.0 | 0.00 | 0.00 | 0.00 | 79 | 1020.0 |
| 20260509214804 | 51 | 237 | 5.0 | 11.0 | 0.00 | 0.00 | 0.00 | 79 | 1020.0 |
| 20260509214505 | 51 | 237 | 3.0 | 8.0 | 0.00 | 0.00 | 0.00 | 79 | 1020.1 |
| 20260509214404 | 51 | 238 | 4.0 | 8.0 | 0.00 | 0.00 | 0.00 | 79 | 1019.7 |
| 20260509214305 | 51 | 245 | 4.0 | 8.0 | 0.00 | 0.00 | 0.00 | 79 | 1019.7 |
| 20260509214205 | 51 | 251 | 2.0 | 8.0 | 0.00 | 0.00 | 0.00 | 79 | 1019.7 |
| 20260509214103 | 51 | 249 | 2.0 | 8.0 | 0.00 | 0.00 | 0.00 | 79 | 1019.7 |
| 20260509214004 | 51 | 251 | 4.0 | 8.0 | 0.00 | 0.00 | 0.00 | 79 | 1019.9 |
| 20260509213903 | 51 | 248 | 5.0 | 7.0 | 0.00 | 0.00 | 0.00 | 79 | 1019.7 |
| 20260509213804 | 51 | 237 | 2.0 | 9.0 | 0.00 | 0.00 | 0.00 | 79 | 1019.5 |
| 20260509213720 | 51 | 232 | 2.0 | 9.0 | 0.00 | 0.00 | 0.00 | 79 | 1019.6 |
| 20260509213704 | 51 | 231 | 2.0 | 9.0 | 0.00 | 0.00 | 0.00 | 79 | 1019.6 |
| 20260509213614 | 51 | 236 | 3.0 | 9.0 | 0.00 | 0.00 | 0.00 | 79 | 1019.9 |
| 20260509213607 | 51 | 239 | 3.0 | 9.0 | 0.00 | 0.00 | 0.00 | 79 | 1019.9 |
| 20260509213315 | 51 | 248 | 6.0 | 9.0 | 0.00 | 0.00 | 0.00 | 78 | 1019.6 |
| 20260509213303 | 51 | 249 | 6.0 | 9.0 | 0.00 | 0.00 | 0.00 | 78 | 1019.6 |
| 20260509213203 | 52 | 258 | 5.0 | 8.0 | 0.00 | 0.00 | 0.00 | 78 | 1019.8 |
| 20260509213004 | 52 | 251 | 4.0 | 7.0 | 0.00 | 0.00 | 0.00 | 78 | 1019.8 |
| 20260509212905 | 52 | 243 | 4.0 | 6.0 | 0.00 | 0.00 | 0.00 | 78 | 1019.8 |
| 20260509212804 | 52 | 240 | 2.0 | 11.0 | 0.00 | 0.00 | 0.00 | 78 | 1019.8 |
| 20260509212705 | 52 | 236 | 2.0 | 11.0 | 0.00 | 0.00 | 0.00 | 78 | 1019.7 |
| 20260509212605 | 52 | 236 | 3.0 | 11.0 | 0.00 | 0.00 | 0.00 | 78 | 1019.8 |
| 20260509212505 | 52 | 243 | 4.0 | 11.0 | 0.00 | 0.00 | 0.00 | 78 | 1019.8 |
| 20260509212403 | 52 | 243 | 4.0 | 11.0 | 0.00 | 0.00 | 0.00 | 78 | 1019.6 |
| 20260509212306 | 52 | 246 | 6.0 | 11.0 | 0.00 | 0.00 | 0.00 | 78 | 1019.7 |
| 20260509212205 | 52 | 257 | 4.0 | 9.0 | 0.00 | 0.00 | 0.00 | 78 | 1019.7 |
| 20260509212118 | 52 | 255 | 5.0 | 9.0 | 0.00 | 0.00 | 0.00 | 78 | 1019.7 |
| 20260509212104 | 52 | 250 | 5.0 | 9.0 | 0.00 | 0.00 | 0.00 | 78 | 1019.7 |
| 20260509212016 | 52 | 238 | 6.0 | 8.0 | 0.00 | 0.00 | 0.00 | 78 | 1019.8 |
| 20260509212004 | 52 | 235 | 6.0 | 8.0 | 0.00 | 0.00 | 0.00 | 78 | 1019.8 |
| 20260509211915 | 52 | 241 | 3.0 | 9.0 | 0.00 | 0.00 | 0.00 | 78 | 1019.8 |
| 20260509211604 | 52 | 234 | 5.0 | 9.0 | 0.00 | 0.00 | 0.00 | 78 | 1019.9 |
| 20260509211504 | 52 | 238 | 4.0 | 9.0 | 0.00 | 0.00 | 0.00 | 78 | 1019.8 |
| 20260509211405 | 52 | 234 | 4.0 | 9.0 | 0.00 | 0.00 | 0.00 | 78 | 1019.7 |
| 20260509211303 | 52 | 230 | 3.0 | 9.0 | 0.00 | 0.00 | 0.00 | 78 | 1019.7 |
| 20260509211103 | 52 | 235 | 4.0 | 9.0 | 0.00 | 0.00 | 0.00 | 78 | 1019.9 |
| 20260509211018 | 52 | 244 | 4.0 | 9.0 | 0.00 | 0.00 | 0.00 | 78 | 1019.9 |
| 20260509211003 | 52 | 246 | 4.0 | 9.0 | 0.00 | 0.00 | 0.00 | 78 | 1019.7 |
| 20260509210904 | 52 | 247 | 4.0 | 9.0 | 0.00 | 0.00 | 0.00 | 78 | 1019.5 |
| 20260509210704 | 52 | 241 | 2.0 | 9.0 | 0.00 | 0.00 | 0.00 | 78 | 1019.9 |
| 20260509210605 | 52 | 246 | 5.0 | 11.0 | 0.00 | 0.00 | 0.00 | 78 | 1019.7 |
| 20260509210505 | 52 | 230 | 5.0 | 11.0 | 0.00 | 0.00 | 0.00 | 78 | 1019.6 |
| 20260509210403 | 52 | 228 | 6.0 | 14.0 | 0.00 | 0.00 | 0.00 | 78 | 1019.8 |
| 20260509210304 | 52 | 233 | 3.0 | 14.0 | 0.00 | 0.00 | 0.00 | 78 | 1019.8 |
| 20260509210108 | 52 | 223 | 6.0 | 14.0 | 0.00 | 0.00 | 0.00 | 78 | 1020.0 |
| 20260509210004 | 52 | 221 | 7.0 | 14.0 | 0.00 | 0.00 | 0.00 | 78 | 1019.6 |
| 20260509205903 | 52 | 213 | 5.0 | 11.0 | 0.00 | 0.00 | 0.00 | 78 | 1019.8 |
| 20260509205807 | 52 | 210 | 6.0 | 11.0 | 0.00 | 0.00 | 0.00 | 78 | 1019.8 |
| 20260509205703 | 52 | 219 | 6.0 | 11.0 | 0.00 | 0.00 | 0.00 | 78 | 1019.8 |
| 20260509205603 | 52 | 214 | 5.0 | 11.0 | 0.00 | 0.00 | 0.00 | 78 | 1019.8 |
| 20260509205507 | 52 | 200 | 4.0 | 11.0 | 0.00 | 0.00 | 0.00 | 78 | 1020.0 |
| 20260509205405 | 52 | 217 | 4.0 | 11.0 | 0.00 | 0.00 | 0.00 | 78 | 1019.7 |
| 20260509205307 | 52 | 215 | 5.0 | 11.0 | 0.00 | 0.00 | 0.00 | 78 | 1019.7 |
| 20260509205203 | 52 | 211 | 6.0 | 11.0 | 0.00 | 0.00 | 0.00 | 78 | 1019.8 |
| 20260509205104 | 52 | 218 | 6.0 | 11.0 | 0.00 | 0.00 | 0.00 | 78 | 1019.8 |
| 20260509205003 | 52 | 239 | 4.0 | 9.0 | 0.00 | 0.00 | 0.00 | 78 | 1019.8 |
| 20260509204904 | 52 | 235 | 4.0 | 9.0 | 0.00 | 0.00 | 0.00 | 78 | 1019.5 |
| 20260509204812 | 52 | 236 | 4.0 | 9.0 | 0.00 | 0.00 | 0.00 | 78 | 1019.7 |
| 20260509204704 | 52 | 236 | 4.0 | 9.0 | 0.00 | 0.00 | 0.00 | 78 | 1020.0 |
| 20260509204605 | 52 | 231 | 5.0 | 9.0 | 0.00 | 0.00 | 0.00 | 78 | 1019.8 |
| 20260509204504 | 52 | 225 | 4.0 | 9.0 | 0.00 | 0.00 | 0.00 | 78 | 1019.9 |
| 20260509204404 | 52 | 223 | 7.0 | 9.0 | 0.00 | 0.00 | 0.00 | 78 | 1019.8 |
| 20260509204304 | 52 | 222 | 3.0 | 8.0 | 0.00 | 0.00 | 0.00 | 78 | 1019.7 |
| 20260509204218 | 52 | 225 | 4.0 | 8.0 | 0.00 | 0.00 | 0.00 | 78 | 1019.8 |
| 20260509204203 | 52 | 227 | 5.0 | 8.0 | 0.00 | 0.00 | 0.00 | 78 | 1019.9 |
| 20260509204105 | 52 | 241 | 4.0 | 8.0 | 0.00 | 0.00 | 0.00 | 78 | 1019.7 |
| 20260509203905 | 52 | 256 | 5.0 | 11.0 | 0.00 | 0.00 | 0.00 | 78 | 1019.8 |
| 20260509203804 | 52 | 261 | 4.0 | 13.0 | 0.00 | 0.00 | 0.00 | 78 | 1019.8 |
| 20260509203716 | 52 | 262 | 4.0 | 13.0 | 0.00 | 0.00 | 0.00 | 78 | 1019.8 |
| 20260509203704 | 52 | 266 | 4.0 | 13.0 | 0.00 | 0.00 | 0.00 | 78 | 1019.8 |
| 20260509203604 | 52 | 253 | 4.0 | 13.0 | 0.00 | 0.00 | 0.00 | 78 | 1019.6 |
| 20260509203405 | 52 | 250 | 5.0 | 13.0 | 0.00 | 0.00 | 0.00 | 79 | 1019.8 |
| 20260509203304 | 52 | 222 | 5.0 | 15.0 | 0.00 | 0.00 | 0.00 | 79 | 1020.0 |
| 20260509203204 | 52 | 208 | 6.0 | 15.0 | 0.00 | 0.00 | 0.00 | 79 | 1019.7 |
| 20260509203103 | 52 | 213 | 6.0 | 15.0 | 0.00 | 0.00 | 0.00 | 79 | 1019.8 |
| 20260509203005 | 52 | 206 | 5.0 | 15.0 | 0.00 | 0.00 | 0.00 | 79 | 1019.9 |
| 20260509202905 | 52 | 207 | 5.0 | 15.0 | 0.00 | 0.00 | 0.00 | 79 | 1019.8 |
| 20260509202803 | 52 | 220 | 8.0 | 15.0 | 0.00 | 0.00 | 0.00 | 79 | 1019.7 |
| 20260509202703 | 52 | 225 | 6.0 | 13.0 | 0.00 | 0.00 | 0.00 | 79 | 1019.7 |
| 20260509202603 | 52 | 231 | 4.0 | 13.0 | 0.00 | 0.00 | 0.00 | 79 | 1019.8 |
| 20260509202503 | 52 | 237 | 6.0 | 13.0 | 0.00 | 0.00 | 0.00 | 79 | 1019.8 |
| 20260509202408 | 52 | 233 | 7.0 | 13.0 | 0.00 | 0.00 | 0.00 | 79 | 1019.8 |
| 20260509202306 | 52 | 236 | 5.0 | 11.0 | 0.00 | 0.00 | 0.00 | 79 | 1019.7 |
| 20260509202203 | 52 | 240 | 5.0 | 16.0 | 0.00 | 0.00 | 0.00 | 79 | 1019.6 |
| 20260509202103 | 52 | 237 | 7.0 | 16.0 | 0.00 | 0.00 | 0.00 | 79 | 1019.7 |
| 20260509202003 | 52 | 238 | 5.0 | 16.0 | 0.00 | 0.00 | 0.00 | 79 | 1019.6 |
| 20260509201910 | 52 | 238 | 4.0 | 16.0 | 0.00 | 0.00 | 0.00 | 79 | 1019.5 |
| 20260509201805 | 52 | 243 | 5.0 | 16.0 | 0.00 | 0.00 | 0.00 | 79 | 1019.8 |
| 20260509201703 | 52 | 243 | 8.0 | 16.0 | 0.00 | 0.00 | 0.00 | 79 | 1019.7 |
| 20260509201603 | 52 | 243 | 7.0 | 14.0 | 0.00 | 0.00 | 0.00 | 79 | 1019.8 |
| 20260509201504 | 52 | 243 | 8.0 | 14.0 | 0.00 | 0.00 | 0.00 | 79 | 1019.8 |
| 20260509201405 | 52 | 248 | 4.0 | 14.0 | 0.00 | 0.00 | 0.00 | 80 | 1019.9 |
| 20260509201303 | 52 | 248 | 10.0 | 14.0 | 0.00 | 0.00 | 0.00 | 80 | 1019.8 |
| 20260509201203 | 52 | 241 | 6.0 | 14.0 | 0.00 | 0.00 | 0.00 | 80 | 1019.5 |
| 20260509201105 | 52 | 235 | 7.0 | 14.0 | 0.00 | 0.00 | 0.00 | 80 | 1019.7 |
| 20260509201004 | 52 | 233 | 6.0 | 14.0 | 0.00 | 0.00 | 0.00 | 80 | 1019.7 |
| 20260509200905 | 52 | 224 | 4.0 | 14.0 | 0.00 | 0.00 | 0.00 | 80 | 1019.6 |
| 20260509200803 | 52 | 218 | 4.0 | 14.0 | 0.00 | 0.00 | 0.00 | 80 | 1019.8 |
| 20260509200705 | 52 | 222 | 6.0 | 14.0 | 0.00 | 0.00 | 0.00 | 80 | 1019.8 |
| 20260509200603 | 52 | 232 | 5.0 | 16.0 | 0.00 | 0.00 | 0.00 | 80 | 1019.6 |
| 20260509200503 | 52 | 229 | 10.0 | 16.0 | 0.00 | 0.00 | 0.00 | 80 | 1019.8 |
| 20260509200405 | 52 | 234 | 9.0 | 16.0 | 0.00 | 0.00 | 0.00 | 80 | 1019.9 |
| 20260509200305 | 52 | 239 | 6.0 | 16.0 | 0.00 | 0.00 | 0.00 | 80 | 1020.0 |
| 20260509200209 | 52 | 240 | 8.0 | 16.0 | 0.00 | 0.00 | 0.00 | 80 | 1019.9 |
| 20260509200120 | 52 | 239 | 5.0 | 14.0 | 0.00 | 0.00 | 0.00 | 80 | 1019.8 |
| 20260509200103 | 52 | 240 | 5.0 | 14.0 | 0.00 | 0.00 | 0.00 | 80 | 1019.8 |
| 20260509200004 | 52 | 243 | 5.0 | 14.0 | 0.00 | 0.00 | 0.00 | 80 | 1019.8 |
| 20260509195806 | 52 | 244 | 6.0 | 15.0 | 0.00 | 0.00 | 0.00 | 80 | 1019.7 |
| 20260509195704 | 52 | 247 | 3.0 | 15.0 | 0.00 | 0.00 | 0.00 | 81 | 1019.7 |
| 20260509195604 | 52 | 247 | 7.0 | 15.0 | 0.00 | 0.00 | 0.00 | 80 | 1019.8 |
| 20260509195504 | 52 | 247 | 9.0 | 15.0 | 0.00 | 0.00 | 0.00 | 80 | 1019.7 |
| 20260509195405 | 52 | 248 | 7.0 | 14.0 | 0.00 | 0.00 | 0.00 | 80 | 1019.8 |
| 20260509195306 | 52 | 255 | 5.0 | 11.0 | 0.00 | 0.00 | 0.00 | 80 | 1019.7 |
| 20260509195204 | 52 | 249 | 4.0 | 11.0 | 0.00 | 0.00 | 0.00 | 80 | 1019.8 |
| 20260509195104 | 52 | 242 | 5.0 | 11.0 | 0.00 | 0.00 | 0.00 | 80 | 1019.7 |
| 20260509195004 | 52 | 234 | 4.0 | 11.0 | 0.00 | 0.00 | 0.00 | 80 | 1020.0 |
| 20260509194904 | 52 | 235 | 4.0 | 11.0 | 0.00 | 0.00 | 0.00 | 80 | 1019.7 |
| 20260509194817 | 52 | 230 | 5.0 | 11.0 | 0.00 | 0.00 | 0.00 | 80 | 1019.5 |
| 20260509194703 | 52 | 228 | 8.0 | 11.0 | 0.00 | 0.00 | 0.00 | 80 | 1019.5 |
| 20260509194504 | 52 | 251 | 6.0 | 11.0 | 0.00 | 0.00 | 0.00 | 80 | 1019.8 |
| 20260509194405 | 52 | 248 | 4.0 | 9.0 | 0.00 | 0.00 | 0.00 | 80 | 1019.6 |
| 20260509194307 | 52 | 237 | 4.0 | 11.0 | 0.00 | 0.00 | 0.00 | 80 | 1019.6 |
| 20260509194203 | 51 | 236 | 4.0 | 13.0 | 0.00 | 0.00 | 0.00 | 81 | 1019.9 |
| 20260509194104 | 51 | 232 | 4.0 | 13.0 | 0.00 | 0.00 | 0.00 | 81 | 1020.0 |
| 20260509194003 | 51 | 228 | 7.0 | 14.0 | 0.00 | 0.00 | 0.00 | 81 | 1019.6 |
| 20260509193904 | 51 | 225 | 4.0 | 14.0 | 0.00 | 0.00 | 0.00 | 81 | 1019.8 |
| 20260509193807 | 51 | 238 | 8.0 | 14.0 | 0.00 | 0.00 | 0.00 | 81 | 1019.9 |
| 20260509193604 | 51 | 250 | 4.0 | 14.0 | 0.00 | 0.00 | 0.00 | 81 | 1019.9 |
| 20260509193503 | 51 | 257 | 7.0 | 14.0 | 0.00 | 0.00 | 0.00 | 81 | 1019.7 |
| 20260509193405 | 51 | 260 | 6.0 | 13.0 | 0.00 | 0.00 | 0.00 | 81 | 1019.7 |
| 20260509193304 | 51 | 249 | 3.0 | 13.0 | 0.00 | 0.00 | 0.00 | 81 | 1019.9 |
| 20260509193204 | 51 | 243 | 4.0 | 13.0 | 0.00 | 0.00 | 0.00 | 82 | 1019.8 |
| 20260509193104 | 51 | 240 | 5.0 | 13.0 | 0.00 | 0.00 | 0.00 | 82 | 1019.7 |
| 20260509193006 | 51 | 239 | 9.0 | 13.0 | 0.00 | 0.00 | 0.00 | 81 | 1019.9 |
| 20260509192915 | 51 | 238 | 4.0 | 13.0 | 0.00 | 0.00 | 0.00 | 82 | 1019.8 |
| 20260509192905 | 51 | 240 | 4.0 | 13.0 | 0.00 | 0.00 | 0.00 | 82 | 1019.8 |
| 20260509192803 | 51 | 237 | 6.0 | 13.0 | 0.00 | 0.00 | 0.00 | 82 | 1020.0 |
| 20260509192616 | 51 | 240 | 5.0 | 14.0 | 0.00 | 0.00 | 0.00 | 81 | 1020.1 |
| 20260509192603 | 51 | 240 | 7.0 | 14.0 | 0.00 | 0.00 | 0.00 | 81 | 1020.1 |
| 20260509192503 | 51 | 229 | 4.0 | 14.0 | 0.00 | 0.00 | 0.00 | 81 | 1019.9 |
| 20260509192306 | 51 | 236 | 4.0 | 14.0 | 0.00 | 0.00 | 0.00 | 81 | 1019.8 |
| 20260509192205 | 51 | 237 | 7.0 | 14.0 | 0.00 | 0.00 | 0.00 | 81 | 1019.9 |
| 20260509192104 | 51 | 242 | 6.0 | 13.0 | 0.00 | 0.00 | 0.00 | 80 | 1019.9 |
| 20260509192005 | 52 | 258 | 4.0 | 13.0 | 0.00 | 0.00 | 0.00 | 80 | 1019.8 |
| 20260509191903 | 52 | 265 | 7.0 | 13.0 | 0.00 | 0.00 | 0.00 | 79 | 1019.9 |
| 20260509191805 | 52 | 260 | 8.0 | 13.0 | 0.00 | 0.00 | 0.00 | 78 | 1020.1 |
| 20260509191703 | 52 | 259 | 5.0 | 11.0 | 0.00 | 0.00 | 0.00 | 78 | 1019.9 |
| 20260509191604 | 52 | 251 | 4.0 | 11.0 | 0.00 | 0.00 | 0.00 | 78 | 1019.8 |
| 20260509191505 | 52 | 244 | 6.0 | 13.0 | 0.00 | 0.00 | 0.00 | 78 | 1019.5 |
| 20260509191403 | 52 | 240 | 5.0 | 13.0 | 0.00 | 0.00 | 0.00 | 78 | 1019.7 |
| 20260509191305 | 52 | 246 | 7.0 | 13.0 | 0.00 | 0.00 | 0.00 | 77 | 1019.7 |
| 20260509191205 | 52 | 253 | 5.0 | 13.0 | 0.00 | 0.00 | 0.00 | 78 | 1019.7 |
| 20260509191105 | 52 | 251 | 5.0 | 13.0 | 0.00 | 0.00 | 0.00 | 78 | 1019.7 |
| 20260509191004 | 52 | 260 | 5.0 | 13.0 | 0.00 | 0.00 | 0.00 | 78 | 1019.6 |
| 20260509190903 | 52 | 256 | 8.0 | 13.0 | 0.00 | 0.00 | 0.00 | 78 | 1019.8 |
| 20260509190804 | 52 | 251 | 5.0 | 13.0 | 0.00 | 0.00 | 0.00 | 78 | 1019.6 |
| 20260509190704 | 52 | 242 | 6.0 | 14.0 | 0.00 | 0.00 | 0.00 | 78 | 1019.8 |
| 20260509190604 | 52 | 260 | 4.0 | 14.0 | 0.00 | 0.00 | 0.00 | 78 | 1019.7 |
| 20260509190505 | 52 | 250 | 9.0 | 14.0 | 0.00 | 0.00 | 0.00 | 78 | 1019.8 |
| 20260509190403 | 52 | 238 | 6.0 | 14.0 | 0.00 | 0.00 | 0.00 | 78 | 1019.9 |
| 20260509190304 | 52 | 237 | 5.0 | 14.0 | 0.00 | 0.00 | 0.00 | 78 | 1019.7 |
| 20260509190204 | 52 | 230 | 8.0 | 13.0 | 0.00 | 0.00 | 0.00 | 78 | 1019.8 |
| 20260509190106 | 52 | 223 | 4.0 | 14.0 | 0.00 | 0.00 | 0.00 | 78 | 1019.7 |
| 20260509190005 | 52 | 222 | 4.0 | 14.0 | 0.00 | 0.00 | 0.00 | 78 | 1019.7 |
| 20260509185904 | 52 | 219 | 8.0 | 14.0 | 0.00 | 0.00 | 0.00 | 78 | 1019.7 |
| 20260509185817 | 52 | 211 | 8.0 | 14.0 | 0.00 | 0.00 | 0.00 | 78 | 1020.0 |
| 20260509185804 | 52 | 215 | 6.0 | 14.0 | 0.00 | 0.00 | 0.00 | 77 | 1019.6 |
| 20260509185505 | 52 | 213 | 7.0 | 14.0 | 0.00 | 0.00 | 0.00 | 76 | 1019.5 |
| 20260509185404 | 52 | 219 | 4.0 | 14.0 | 0.00 | 0.00 | 0.00 | 76 | 1019.6 |
| 20260509185315 | 52 | 227 | 8.0 | 14.0 | 0.00 | 0.00 | 0.00 | 76 | 1019.6 |
| 20260509185306 | 52 | 224 | 8.0 | 14.0 | 0.00 | 0.00 | 0.00 | 76 | 1019.6 |
| 20260509185205 | 52 | 217 | 7.0 | 17.0 | 0.00 | 0.00 | 0.00 | 76 | 1019.6 |
| 20260509185004 | 53 | 231 | 7.0 | 17.0 | 0.00 | 0.00 | 0.00 | 75 | 1019.5 |
| 20260509184914 | 53 | 242 | 6.0 | 17.0 | 0.00 | 0.00 | 0.00 | 75 | 1019.5 |
| 20260509184905 | 53 | 239 | 6.0 | 17.0 | 0.00 | 0.00 | 0.00 | 75 | 1019.5 |
| 20260509184804 | 53 | 240 | 7.0 | 17.0 | 0.00 | 0.00 | 0.00 | 76 | 1019.5 |
| 20260509184606 | 53 | 222 | 5.0 | 15.0 | 0.00 | 0.00 | 0.00 | 76 | 1019.4 |
| 20260509184513 | 52 | 221 | 7.0 | 15.0 | 0.00 | 0.00 | 0.00 | 76 | 1019.6 |
| 20260509184503 | 52 | 215 | 7.0 | 15.0 | 0.00 | 0.00 | 0.00 | 76 | 1019.6 |
| 20260509184417 | 52 | 206 | 8.0 | 14.0 | 0.00 | 0.00 | 0.00 | 76 | 1019.7 |
| 20260509184404 | 52 | 209 | 8.0 | 14.0 | 0.00 | 0.00 | 0.00 | 76 | 1019.7 |
| 20260509184316 | 52 | 200 | 7.0 | 15.0 | 0.00 | 0.00 | 0.00 | 77 | 1019.8 |
| 20260509184004 | 52 | 213 | 7.0 | 15.0 | 0.00 | 0.00 | 0.00 | 77 | 1019.6 |
| 20260509183903 | 52 | 203 | 8.0 | 17.0 | 0.00 | 0.00 | 0.00 | 77 | 1019.4 |
| 20260509183804 | 52 | 218 | 5.0 | 17.0 | 0.00 | 0.00 | 0.00 | 77 | 1019.6 |
| 20260509183705 | 52 | 220 | 4.0 | 17.0 | 0.00 | 0.00 | 0.00 | 77 | 1019.6 |
| 20260509183403 | 52 | 251 | 8.0 | 14.0 | 0.00 | 0.00 | 0.00 | 77 | 1019.7 |
| 20260509183305 | 52 | 227 | 8.0 | 14.0 | 0.00 | 0.00 | 0.00 | 77 | 1019.6 |
| 20260509183105 | 52 | 214 | 6.0 | 14.0 | 0.00 | 0.00 | 0.00 | 76 | 1019.8 |
| 20260509183018 | 52 | 217 | 6.0 | 14.0 | 0.00 | 0.00 | 0.00 | 76 | 1019.6 |
| 20260509183003 | 52 | 217 | 7.0 | 14.0 | 0.00 | 0.00 | 0.00 | 77 | 1019.8 |
| 20260509182903 | 52 | 212 | 6.0 | 14.0 | 0.00 | 0.00 | 0.00 | 77 | 1019.5 |
| 20260509182703 | 52 | 243 | 6.0 | 13.0 | 0.00 | 0.00 | 0.00 | 77 | 1019.6 |
| 20260509182617 | 52 | 243 | 6.0 | 13.0 | 0.00 | 0.00 | 0.00 | 77 | 1019.6 |
| 20260509182603 | 51 | 246 | 8.0 | 13.0 | 0.00 | 0.00 | 0.00 | 77 | 1019.7 |
| 20260509182503 | 51 | 255 | 8.0 | 13.0 | 0.00 | 0.00 | 0.00 | 77 | 1019.6 |
| 20260509182306 | 52 | 229 | 4.0 | 15.0 | 0.00 | 0.00 | 0.00 | 78 | 1019.5 |
| 20260509182216 | 51 | 227 | 3.0 | 15.0 | 0.00 | 0.00 | 0.00 | 78 | 1019.5 |
| 20260509182206 | 51 | 227 | 6.0 | 15.0 | 0.00 | 0.00 | 0.00 | 79 | 1019.6 |
| 20260509182115 | 51 | 225 | 7.0 | 15.0 | 0.00 | 0.00 | 0.00 | 79 | 1019.6 |
| 20260509182105 | 51 | 224 | 7.0 | 15.0 | 0.00 | 0.00 | 0.00 | 79 | 1019.6 |
| 20260509181917 | 51 | 225 | 9.0 | 15.0 | 0.00 | 0.00 | 0.00 | 79 | 1019.6 |
| 20260509181803 | 51 | 236 | 9.0 | 15.0 | 0.00 | 0.00 | 0.00 | 78 | 1019.5 |
| 20260509181603 | 52 | 240 | 6.0 | 15.0 | 0.00 | 0.00 | 0.00 | 77 | 1019.8 |
| 20260509181504 | 52 | 230 | 9.0 | 15.0 | 0.00 | 0.00 | 0.00 | 76 | 1019.5 |
| 20260509181403 | 53 | 237 | 8.0 | 14.0 | 0.00 | 0.00 | 0.00 | 74 | 1019.5 |
| 20260509181204 | 53 | 231 | 7.0 | 15.0 | 0.00 | 0.00 | 0.00 | 73 | 1019.4 |
| 20260509181104 | 53 | 231 | 6.0 | 15.0 | 0.00 | 0.00 | 0.00 | 73 | 1019.5 |
| 20260509181005 | 52 | 231 | 8.0 | 15.0 | 0.00 | 0.00 | 0.00 | 73 | 1019.3 |
| 20260509180904 | 52 | 227 | 8.0 | 15.0 | 0.00 | 0.00 | 0.00 | 73 | 1019.6 |
| 20260509180803 | 53 | 242 | 8.0 | 15.0 | 0.00 | 0.00 | 0.00 | 73 | 1019.4 |
| 20260509180704 | 53 | 234 | 9.0 | 15.0 | 0.00 | 0.00 | 0.00 | 72 | 1019.2 |
| 20260509180604 | 53 | 220 | 7.0 | 15.0 | 0.00 | 0.00 | 0.00 | 72 | 1019.5 |
| 20260509180504 | 53 | 228 | 3.0 | 15.0 | 0.00 | 0.00 | 0.00 | 72 | 1019.4 |
| 20260509180404 | 53 | 232 | 5.0 | 15.0 | 0.00 | 0.00 | 0.00 | 72 | 1019.4 |
| 20260509180304 | 53 | 229 | 6.0 | 15.0 | 0.00 | 0.00 | 0.00 | 72 | 1019.3 |
| 20260509180203 | 53 | 229 | 7.0 | 15.0 | 0.00 | 0.00 | 0.00 | 71 | 1019.3 |
| 20260509180117 | 53 | 234 | 7.0 | 20.0 | 0.00 | 0.00 | 0.00 | 71 | 1019.4 |
| 20260509180103 | 53 | 239 | 7.0 | 20.0 | 0.00 | 0.00 | 0.00 | 71 | 1019.4 |
| 20260509180015 | 53 | 240 | 6.0 | 20.0 | 0.00 | 0.00 | 0.00 | 72 | 1019.3 |
| 20260509180004 | 53 | 236 | 6.0 | 20.0 | 0.00 | 0.00 | 0.00 | 72 | 1019.3 |
| 20260509175704 | 53 | 228 | 8.0 | 20.0 | 0.00 | 0.00 | 0.00 | 72 | 1019.3 |
| 20260509175606 | 53 | 232 | 11.0 | 20.0 | 0.00 | 0.00 | 0.00 | 73 | 1019.5 |
| 20260509175503 | 53 | 233 | 7.0 | 18.0 | 0.00 | 0.00 | 0.00 | 73 | 1019.5 |
| 20260509175417 | 53 | 235 | 7.0 | 18.0 | 0.00 | 0.00 | 0.00 | 73 | 1019.6 |
| 20260509175404 | 53 | 239 | 11.0 | 18.0 | 0.00 | 0.00 | 0.00 | 72 | 1019.3 |
| 20260509175306 | 53 | 243 | 9.0 | 17.0 | 0.00 | 0.00 | 0.00 | 72 | 1019.5 |
| 20260509175103 | 53 | 246 | 9.0 | 17.0 | 0.00 | 0.00 | 0.00 | 72 | 1019.3 |
| 20260509175005 | 53 | 251 | 8.0 | 16.0 | 0.00 | 0.00 | 0.00 | 72 | 1019.3 |
| 20260509174904 | 53 | 253 | 7.0 | 16.0 | 0.00 | 0.00 | 0.00 | 72 | 1019.4 |
| 20260509174804 | 53 | 251 | 8.0 | 16.0 | 0.00 | 0.00 | 0.00 | 72 | 1019.3 |
| 20260509174705 | 53 | 240 | 5.0 | 17.0 | 0.00 | 0.00 | 0.00 | 72 | 1019.3 |
| 20260509174504 | 53 | 219 | 6.0 | 17.0 | 0.00 | 0.00 | 0.00 | 72 | 1019.4 |
| 20260509174405 | 53 | 237 | 4.0 | 25.0 | 0.00 | 0.00 | 0.00 | 72 | 1019.3 |
| 20260509174305 | 53 | 240 | 6.0 | 25.0 | 0.00 | 0.00 | 0.00 | 72 | 1019.1 |
| 20260509174204 | 53 | 252 | 8.0 | 25.0 | 0.00 | 0.00 | 0.00 | 72 | 1019.5 |
| 20260509174103 | 53 | 257 | 8.0 | 25.0 | 0.00 | 0.00 | 0.00 | 72 | 1019.4 |
| 20260509174005 | 53 | 267 | 7.0 | 25.0 | 0.00 | 0.00 | 0.00 | 73 | 1019.4 |
| 20260509173904 | 53 | 261 | 15.0 | 25.0 | 0.00 | 0.00 | 0.00 | 73 | 1019.3 |
| 20260509173806 | 53 | 259 | 6.0 | 15.0 | 0.00 | 0.00 | 0.00 | 72 | 1019.3 |
| 20260509173705 | 53 | 253 | 4.0 | 15.0 | 0.00 | 0.00 | 0.00 | 73 | 1019.2 |
| 20260509173603 | 53 | 253 | 8.0 | 15.0 | 0.00 | 0.00 | 0.00 | 72 | 1019.4 |
| 20260509173504 | 53 | 247 | 10.0 | 14.0 | 0.00 | 0.00 | 0.00 | 72 | 1019.3 |
| 20260509173404 | 53 | 229 | 5.0 | 17.0 | 0.00 | 0.00 | 0.00 | 72 | 1019.4 |
| 20260509173305 | 53 | 235 | 8.0 | 17.0 | 0.00 | 0.00 | 0.00 | 72 | 1019.2 |
| 20260509173205 | 53 | 233 | 4.0 | 17.0 | 0.00 | 0.00 | 0.00 | 73 | 1019.5 |
| 20260509173103 | 53 | 230 | 7.0 | 17.0 | 0.00 | 0.00 | 0.00 | 73 | 1019.3 |
| 20260509173004 | 53 | 218 | 6.0 | 17.0 | 0.00 | 0.00 | 0.00 | 73 | 1019.4 |
| 20260509172906 | 53 | 230 | 5.0 | 15.0 | 0.00 | 0.00 | 0.00 | 73 | 1019.4 |
| 20260509172804 | 53 | 214 | 6.0 | 15.0 | 0.00 | 0.00 | 0.00 | 73 | 1019.4 |
| 20260509172705 | 52 | 206 | 5.0 | 15.0 | 0.00 | 0.00 | 0.00 | 73 | 1019.5 |
| 20260509172603 | 52 | 213 | 6.0 | 15.0 | 0.00 | 0.00 | 0.00 | 73 | 1019.5 |
| 20260509172503 | 52 | 222 | 9.0 | 15.0 | 0.00 | 0.00 | 0.00 | 73 | 1019.4 |
| 20260509172403 | 53 | 219 | 8.0 | 15.0 | 0.00 | 0.00 | 0.00 | 73 | 1019.4 |
| 20260509172306 | 52 | 225 | 8.0 | 15.0 | 0.00 | 0.00 | 0.00 | 73 | 1019.4 |
| 20260509172203 | 52 | 234 | 5.0 | 15.0 | 0.00 | 0.00 | 0.00 | 73 | 1019.4 |
| 20260509172105 | 52 | 225 | 7.0 | 15.0 | 0.00 | 0.00 | 0.00 | 73 | 1019.3 |
| 20260509172004 | 52 | 219 | 8.0 | 15.0 | 0.00 | 0.00 | 0.00 | 73 | 1019.2 |
| 20260509171905 | 52 | 220 | 8.0 | 15.0 | 0.00 | 0.00 | 0.00 | 73 | 1019.3 |
| 20260509171805 | 52 | 219 | 9.0 | 15.0 | 0.00 | 0.00 | 0.00 | 73 | 1019.3 |
| 20260509171704 | 53 | 232 | 6.0 | 13.0 | 0.00 | 0.00 | 0.00 | 73 | 1019.3 |
| 20260509171604 | 53 | 234 | 3.0 | 13.0 | 0.00 | 0.00 | 0.00 | 73 | 1019.4 |
| 20260509171504 | 52 | 245 | 4.0 | 13.0 | 0.00 | 0.00 | 0.00 | 73 | 1019.4 |
| 20260509171405 | 52 | 238 | 7.0 | 13.0 | 0.00 | 0.00 | 0.00 | 73 | 1019.4 |
| 20260509171314 | 52 | 235 | 6.0 | 13.0 | 0.00 | 0.00 | 0.00 | 73 | 1019.6 |
| 20260509171205 | 52 | 228 | 5.0 | 15.0 | 0.00 | 0.00 | 0.00 | 73 | 1019.4 |
| 20260509171004 | 52 | 216 | 8.0 | 17.0 | 0.00 | 0.00 | 0.00 | 73 | 1019.2 |
| 20260509170903 | 52 | 221 | 8.0 | 17.0 | 0.00 | 0.00 | 0.00 | 73 | 1019.3 |
| 20260509170817 | 52 | 232 | 8.0 | 17.0 | 0.00 | 0.00 | 0.00 | 73 | 1019.1 |
| 20260509170805 | 52 | 234 | 8.0 | 17.0 | 0.00 | 0.00 | 0.00 | 73 | 1019.1 |
| 20260509170707 | 52 | 231 | 8.0 | 17.0 | 0.00 | 0.00 | 0.00 | 73 | 1019.2 |
| 20260509170518 | 52 | 220 | 9.0 | 17.0 | 0.00 | 0.00 | 0.00 | 73 | 1019.3 |
| 20260509170504 | 52 | 224 | 9.0 | 17.0 | 0.00 | 0.00 | 0.00 | 73 | 1019.3 |
| 20260509170404 | 52 | 231 | 6.0 | 17.0 | 0.00 | 0.00 | 0.00 | 73 | 1019.2 |
| 20260509170203 | 52 | 239 | 11.0 | 21.0 | 0.00 | 0.00 | 0.00 | 74 | 1019.2 |
| 20260509170104 | 52 | 244 | 8.0 | 21.0 | 0.00 | 0.00 | 0.00 | 74 | 1019.5 |
| 20260509170004 | 52 | 241 | 8.0 | 21.0 | 0.00 | 0.00 | 0.00 | 74 | 1019.3 |
| 20260509165907 | 52 | 238 | 8.0 | 21.0 | 0.00 | 0.00 | 0.00 | 73 | 1019.3 |
| 20260509165804 | 52 | 232 | 9.0 | 21.0 | 0.00 | 0.00 | 0.00 | 74 | 1019.2 |
| 20260509165717 | 52 | 223 | 8.0 | 15.0 | 0.00 | 0.00 | 0.00 | 74 | 1019.5 |
| 20260509165603 | 52 | 226 | 6.0 | 15.0 | 0.00 | 0.00 | 0.00 | 74 | 1019.4 |
| 20260509165514 | 52 | 234 | 7.0 | 15.0 | 0.00 | 0.00 | 0.00 | 74 | 1019.3 |
| 20260509165403 | 52 | 240 | 8.0 | 18.0 | 0.00 | 0.00 | 0.00 | 74 | 1019.6 |
| 20260509165205 | 52 | 247 | 6.0 | 18.0 | 0.00 | 0.00 | 0.00 | 74 | 1019.2 |
| 20260509165104 | 52 | 252 | 7.0 | 18.0 | 0.00 | 0.00 | 0.00 | 75 | 1019.3 |
| 20260509165006 | 51 | 241 | 12.0 | 18.0 | 0.00 | 0.00 | 0.00 | 76 | 1019.4 |
| 20260509164903 | 51 | 241 | 12.0 | 18.0 | 0.00 | 0.00 | 0.00 | 76 | 1019.1 |
| 20260509164805 | 51 | 239 | 6.0 | 15.0 | 0.00 | 0.00 | 0.00 | 76 | 1019.2 |
| 20260509164703 | 51 | 241 | 7.0 | 15.0 | 0.00 | 0.00 | 0.00 | 76 | 1019.2 |
| 20260509164603 | 51 | 238 | 8.0 | 15.0 | 0.00 | 0.00 | 0.00 | 76 | 1019.4 |
| 20260509164504 | 51 | 249 | 8.0 | 16.0 | 0.00 | 0.00 | 0.00 | 76 | 1019.6 |
| 20260509164403 | 51 | 248 | 8.0 | 16.0 | 0.00 | 0.00 | 0.00 | 76 | 1019.7 |
| 20260509164305 | 51 | 244 | 4.0 | 16.0 | 0.00 | 0.00 | 0.00 | 76 | 1019.5 |
| 20260509164216 | 51 | 250 | 8.0 | 16.0 | 0.00 | 0.00 | 0.00 | 76 | 1019.6 |
| 20260509164203 | 51 | 250 | 4.0 | 16.0 | 0.00 | 0.00 | 0.00 | 76 | 1019.5 |
| 20260509164104 | 51 | 248 | 10.0 | 16.0 | 0.00 | 0.00 | 0.00 | 76 | 1019.6 |
| 20260509163903 | 51 | 230 | 9.0 | 15.0 | 0.00 | 0.00 | 0.00 | 76 | 1019.6 |
| 20260509163804 | 51 | 233 | 7.0 | 15.0 | 0.00 | 0.00 | 0.00 | 76 | 1019.6 |
| 20260509163703 | 51 | 224 | 4.0 | 15.0 | 0.00 | 0.00 | 0.00 | 76 | 1019.5 |
| 20260509163604 | 51 | 223 | 5.0 | 15.0 | 0.00 | 0.00 | 0.00 | 76 | 1019.6 |
| 20260509163505 | 51 | 223 | 7.0 | 15.0 | 0.00 | 0.00 | 0.00 | 76 | 1019.3 |
| 20260509163403 | 51 | 227 | 8.0 | 18.0 | 0.00 | 0.00 | 0.00 | 76 | 1019.5 |
| 20260509163303 | 51 | 212 | 8.0 | 18.0 | 0.00 | 0.00 | 0.00 | 75 | 1019.5 |
| 20260509163204 | 51 | 211 | 5.0 | 18.0 | 0.00 | 0.00 | 0.00 | 75 | 1019.5 |
| 20260509163104 | 51 | 216 | 5.0 | 18.0 | 0.00 | 0.00 | 0.00 | 75 | 1019.5 |
| 20260509163004 | 51 | 211 | 5.0 | 18.0 | 0.00 | 0.00 | 0.00 | 75 | 1019.3 |
| 20260509162917 | 51 | 207 | 10.0 | 18.0 | 0.00 | 0.00 | 0.00 | 75 | 1019.4 |
| 20260509162904 | 51 | 210 | 10.0 | 18.0 | 0.00 | 0.00 | 0.00 | 75 | 1019.4 |
| 20260509162804 | 51 | 223 | 4.0 | 16.0 | 0.00 | 0.00 | 0.00 | 75 | 1019.5 |
| 20260509162609 | 51 | 215 | 8.0 | 18.0 | 0.00 | 0.00 | 0.00 | 76 | 1019.5 |
| 20260509162504 | 51 | 217 | 8.0 | 18.0 | 0.00 | 0.00 | 0.00 | 76 | 1019.5 |
| 20260509162404 | 51 | 204 | 10.0 | 18.0 | 0.00 | 0.00 | 0.00 | 75 | 1019.5 |
| 20260509162307 | 51 | 203 | 5.0 | 18.0 | 0.00 | 0.00 | 0.00 | 76 | 1019.5 |
| 20260509162205 | 51 | 209 | 11.0 | 18.0 | 0.00 | 0.00 | 0.00 | 76 | 1019.5 |
| 20260509162116 | 51 | 210 | 8.0 | 16.0 | 0.00 | 0.00 | 0.00 | 76 | 1019.4 |
| 20260509162004 | 51 | 222 | 9.0 | 16.0 | 0.00 | 0.00 | 0.00 | 76 | 1019.5 |
| 20260509161913 | 51 | 236 | 6.0 | 16.0 | 0.00 | 0.00 | 0.00 | 76 | 1019.8 |
| 20260509161803 | 51 | 249 | 6.0 | 16.0 | 0.00 | 0.00 | 0.00 | 77 | 1019.7 |
| 20260509161604 | 50 | 243 | 8.0 | 24.0 | 0.00 | 0.00 | 0.00 | 77 | 1019.8 |
| 20260509161504 | 51 | 241 | 9.0 | 24.0 | 0.00 | 0.00 | 0.00 | 76 | 1019.5 |
| 20260509161403 | 51 | 246 | 7.0 | 24.0 | 0.00 | 0.00 | 0.00 | 75 | 1019.6 |
| 20260509161303 | 51 | 242 | 8.0 | 24.0 | 0.00 | 0.00 | 0.00 | 75 | 1019.6 |
| 20260509161203 | 51 | 239 | 12.0 | 24.0 | 0.00 | 0.00 | 0.00 | 74 | 1019.6 |
| 20260509161105 | 51 | 232 | 8.0 | 22.0 | 0.00 | 0.00 | 0.00 | 74 | 1019.5 |
| 20260509161004 | 51 | 233 | 11.0 | 22.0 | 0.00 | 0.00 | 0.00 | 74 | 1019.5 |
| 20260509160903 | 51 | 223 | 9.0 | 22.0 | 0.00 | 0.00 | 0.00 | 74 | 1019.6 |
| 20260509160805 | 51 | 218 | 8.0 | 17.0 | 0.00 | 0.00 | 0.00 | 74 | 1019.6 |
| 20260509160703 | 51 | 216 | 7.0 | 17.0 | 0.00 | 0.00 | 0.00 | 74 | 1019.6 |
| 20260509160603 | 51 | 237 | 8.0 | 17.0 | 0.00 | 0.00 | 0.00 | 74 | 1019.5 |
| 20260509160403 | 51 | 232 | 8.0 | 14.0 | 0.00 | 0.00 | 0.00 | 74 | 1019.5 |
| 20260509160303 | 51 | 235 | 5.0 | 16.0 | 0.00 | 0.00 | 0.00 | 74 | 1019.4 |
| 20260509160205 | 51 | 217 | 9.0 | 18.0 | 0.00 | 0.00 | 0.00 | 74 | 1019.8 |
| 20260509160103 | 51 | 209 | 8.0 | 18.0 | 0.00 | 0.00 | 0.00 | 74 | 1019.6 |
| 20260509160008 | 51 | 215 | 5.0 | 18.0 | 0.00 | 0.00 | 0.00 | 75 | 1019.3 |
| 20260509155903 | 51 | 221 | 8.0 | 23.0 | 0.00 | 0.00 | 0.00 | 75 | 1019.4 |
| 20260509155805 | 51 | 221 | 10.0 | 23.0 | 0.00 | 0.00 | 0.00 | 74 | 1019.4 |
| 20260509155703 | 51 | 237 | 11.0 | 23.0 | 0.00 | 0.00 | 0.00 | 74 | 1019.2 |
| 20260509155616 | 51 | 241 | 8.0 | 23.0 | 0.00 | 0.00 | 0.00 | 74 | 1019.7 |
| 20260509155503 | 51 | 232 | 8.0 | 23.0 | 0.00 | 0.00 | 0.00 | 74 | 1019.5 |
| 20260509155306 | 51 | 225 | 7.0 | 18.0 | 0.00 | 0.00 | 0.00 | 74 | 1019.7 |
| 20260509155203 | 51 | 229 | 8.0 | 18.0 | 0.00 | 0.00 | 0.00 | 74 | 1019.4 |
| 20260509155105 | 51 | 225 | 13.0 | 18.0 | 0.00 | 0.00 | 0.00 | 74 | 1019.6 |
| 20260509155018 | 51 | 229 | 7.0 | 15.0 | 0.00 | 0.00 | 0.00 | 74 | 1019.3 |
| 20260509155003 | 51 | 232 | 6.0 | 15.0 | 0.00 | 0.00 | 0.00 | 74 | 1019.4 |
| 20260509154705 | 51 | 250 | 6.0 | 15.0 | 0.00 | 0.00 | 0.00 | 74 | 1019.5 |
| 20260509154605 | 51 | 232 | 7.0 | 22.0 | 0.00 | 0.00 | 0.00 | 74 | 1019.6 |
| 20260509154515 | 51 | 224 | 5.0 | 22.0 | 0.00 | 0.00 | 0.00 | 75 | 1019.4 |
| 20260509154503 | 51 | 219 | 5.0 | 22.0 | 0.00 | 0.00 | 0.00 | 75 | 1019.4 |
| 20260509154405 | 51 | 223 | 7.0 | 22.0 | 0.00 | 0.00 | 0.00 | 75 | 1019.4 |
| 20260509154208 | 51 | 221 | 11.0 | 22.0 | 0.00 | 0.00 | 0.00 | 75 | 1019.6 |
| 20260509154104 | 51 | 219 | 8.0 | 20.0 | 0.00 | 0.00 | 0.00 | 75 | 1019.5 |
| 20260509154003 | 51 | 220 | 8.0 | 20.0 | 0.00 | 0.00 | 0.00 | 76 | 1019.6 |
| 20260509153905 | 50 | 218 | 11.0 | 20.0 | 0.00 | 0.00 | 0.00 | 75 | 1019.3 |
| 20260509153804 | 51 | 218 | 11.0 | 20.0 | 0.00 | 0.00 | 0.00 | 75 | 1019.3 |
| 20260509153704 | 51 | 225 | 8.0 | 17.0 | 0.00 | 0.00 | 0.00 | 75 | 1019.5 |
| 20260509153604 | 51 | 227 | 9.0 | 17.0 | 0.00 | 0.00 | 0.00 | 75 | 1019.3 |
| 20260509153504 | 51 | 237 | 6.0 | 17.0 | 0.00 | 0.00 | 0.00 | 75 | 1019.5 |
| 20260509153404 | 51 | 230 | 10.0 | 17.0 | 0.00 | 0.00 | 0.00 | 75 | 1019.3 |
| 20260509153306 | 51 | 225 | 7.0 | 17.0 | 0.00 | 0.00 | 0.00 | 75 | 1019.5 |
| 20260509153204 | 51 | 229 | 11.0 | 17.0 | 0.00 | 0.00 | 0.00 | 75 | 1019.6 |
| 20260509153104 | 51 | 230 | 10.0 | 17.0 | 0.00 | 0.00 | 0.00 | 75 | 1019.4 |
| 20260509153004 | 51 | 226 | 8.0 | 16.0 | 0.00 | 0.00 | 0.00 | 75 | 1019.2 |
| 20260509152904 | 51 | 235 | 6.0 | 17.0 | 0.00 | 0.00 | 0.00 | 75 | 1019.3 |
| 20260509152804 | 51 | 232 | 7.0 | 17.0 | 0.00 | 0.00 | 0.00 | 75 | 1019.3 |
| 20260509152607 | 51 | 235 | 4.0 | 23.0 | 0.00 | 0.00 | 0.00 | 75 | 1019.2 |
| 20260509152504 | 51 | 234 | 8.0 | 23.0 | 0.00 | 0.00 | 0.00 | 75 | 1019.5 |
| 20260509152406 | 51 | 230 | 8.0 | 23.0 | 0.00 | 0.00 | 0.00 | 75 | 1019.2 |
| 20260509152306 | 51 | 232 | 9.0 | 23.0 | 0.00 | 0.00 | 0.00 | 75 | 1019.4 |
| 20260509152204 | 51 | 228 | 11.0 | 18.0 | 0.00 | 0.00 | 0.00 | 74 | 1019.5 |
| 20260509152103 | 51 | 224 | 11.0 | 18.0 | 0.00 | 0.00 | 0.00 | 74 | 1019.5 |
| 20260509152004 | 51 | 215 | 9.0 | 18.0 | 0.00 | 0.00 | 0.00 | 74 | 1019.1 |
| 20260509151903 | 51 | 204 | 8.0 | 18.0 | 0.00 | 0.00 | 0.00 | 74 | 1019.2 |
| 20260509151803 | 51 | 218 | 9.0 | 18.0 | 0.00 | 0.00 | 0.00 | 74 | 1019.1 |
| 20260509151704 | 51 | 216 | 9.0 | 18.0 | 0.00 | 0.00 | 0.00 | 74 | 1019.2 |
| 20260509151603 | 51 | 236 | 9.0 | 18.0 | 0.00 | 0.00 | 0.00 | 74 | 1019.1 |
| 20260509151505 | 51 | 242 | 9.0 | 18.0 | 0.00 | 0.00 | 0.00 | 74 | 1019.1 |
| 20260509151404 | 51 | 241 | 9.0 | 17.0 | 0.00 | 0.00 | 0.00 | 74 | 1019.2 |
| 20260509151209 | 51 | 227 | 5.0 | 22.0 | 0.00 | 0.00 | 0.00 | 74 | 1019.2 |
| 20260509151103 | 51 | 220 | 10.0 | 22.0 | 0.00 | 0.00 | 0.00 | 74 | 1019.1 |
| 20260509150903 | 51 | 233 | 8.0 | 22.0 | 0.00 | 0.00 | 0.00 | 74 | 1019.0 |
| 20260509150804 | 51 | 235 | 10.0 | 22.0 | 0.00 | 0.00 | 0.00 | 74 | 1018.9 |
| 20260509150704 | 51 | 232 | 13.0 | 22.0 | 0.00 | 0.00 | 0.00 | 74 | 1019.0 |
| 20260509150615 | 51 | 232 | 9.0 | 18.0 | 0.00 | 0.00 | 0.00 | 74 | 1019.0 |
| 20260509150603 | 51 | 234 | 11.0 | 18.0 | 0.00 | 0.00 | 0.00 | 74 | 1018.9 |
| 20260509150505 | 51 | 231 | 7.0 | 18.0 | 0.00 | 0.00 | 0.00 | 74 | 1019.3 |
| 20260509150418 | 51 | 232 | 9.0 | 18.0 | 0.00 | 0.00 | 0.00 | 74 | 1019.0 |
| 20260509150303 | 51 | 231 | 10.0 | 18.0 | 0.00 | 0.00 | 0.00 | 74 | 1019.2 |
| 20260509150103 | 51 | 223 | 8.0 | 17.0 | 0.00 | 0.00 | 0.00 | 74 | 1019.1 |
| 20260509150004 | 51 | 222 | 11.0 | 20.0 | 0.00 | 0.00 | 0.00 | 74 | 1019.1 |
| 20260509145903 | 51 | 217 | 10.0 | 20.0 | 0.00 | 0.00 | 0.00 | 74 | 1018.8 |
| 20260509145803 | 51 | 220 | 9.0 | 20.0 | 0.00 | 0.00 | 0.00 | 74 | 1018.9 |
| 20260509145718 | 51 | 218 | 8.0 | 20.0 | 0.00 | 0.00 | 0.00 | 73 | 1018.9 |
| 20260509145703 | 51 | 216 | 8.0 | 20.0 | 0.00 | 0.00 | 0.00 | 73 | 1018.9 |
| 20260509145603 | 51 | 214 | 8.0 | 20.0 | 0.00 | 0.00 | 0.00 | 73 | 1019.1 |
| 20260509145403 | 51 | 215 | 8.0 | 20.0 | 0.00 | 0.00 | 0.00 | 73 | 1018.8 |
| 20260509145306 | 51 | 215 | 6.0 | 20.0 | 0.00 | 0.00 | 0.00 | 73 | 1019.0 |
| 20260509145203 | 51 | 226 | 7.0 | 20.0 | 0.00 | 0.00 | 0.00 | 73 | 1019.0 |
| 20260509145103 | 51 | 230 | 9.0 | 20.0 | 0.00 | 0.00 | 0.00 | 73 | 1018.6 |
| 20260509145003 | 51 | 239 | 11.0 | 20.0 | 0.00 | 0.00 | 0.00 | 73 | 1018.6 |
| 20260509144803 | 51 | 249 | 8.0 | 18.0 | 0.00 | 0.00 | 0.00 | 73 | 1018.7 |
| 20260509144703 | 51 | 253 | 8.0 | 18.0 | 0.00 | 0.00 | 0.00 | 73 | 1018.7 |
| 20260509144605 | 51 | 253 | 7.0 | 18.0 | 0.00 | 0.00 | 0.00 | 73 | 1018.6 |
| 20260509144516 | 51 | 241 | 10.0 | 18.0 | 0.00 | 0.00 | 0.00 | 73 | 1018.7 |
| 20260509144504 | 51 | 240 | 10.0 | 18.0 | 0.00 | 0.00 | 0.00 | 73 | 1018.7 |
| 20260509144403 | 51 | 243 | 9.0 | 18.0 | 0.00 | 0.00 | 0.00 | 73 | 1018.9 |
| 20260509144205 | 51 | 244 | 6.0 | 16.0 | 0.00 | 0.00 | 0.00 | 73 | 1018.5 |
| 20260509144103 | 51 | 241 | 5.0 | 16.0 | 0.00 | 0.00 | 0.00 | 73 | 1018.6 |
| 20260509144019 | 51 | 243 | 9.0 | 16.0 | 0.00 | 0.00 | 0.00 | 73 | 1018.7 |
| 20260509144006 | 51 | 244 | 9.0 | 16.0 | 0.00 | 0.00 | 0.00 | 73 | 1018.7 |
| 20260509143903 | 51 | 247 | 8.0 | 15.0 | 0.00 | 0.00 | 0.00 | 73 | 1018.5 |
| 20260509143816 | 51 | 236 | 9.0 | 15.0 | 0.00 | 0.00 | 0.00 | 73 | 1018.8 |
| 20260509143704 | 51 | 225 | 8.0 | 15.0 | 0.00 | 0.00 | 0.00 | 73 | 1018.7 |
| 20260509143404 | 51 | 236 | 7.0 | 22.0 | 0.00 | 0.00 | 0.00 | 74 | 1018.6 |
| 20260509143304 | 51 | 236 | 7.0 | 22.0 | 0.00 | 0.00 | 0.00 | 74 | 1018.3 |
| 20260509143207 | 51 | 231 | 6.0 | 22.0 | 0.00 | 0.00 | 0.00 | 74 | 1018.5 |
| 20260509143105 | 51 | 237 | 6.0 | 22.0 | 0.00 | 0.00 | 0.00 | 74 | 1018.5 |
| 20260509143005 | 51 | 241 | 9.0 | 23.0 | 0.00 | 0.00 | 0.00 | 74 | 1018.4 |
| 20260509142903 | 51 | 232 | 11.0 | 23.0 | 0.00 | 0.00 | 0.00 | 74 | 1018.3 |
| 20260509142804 | 51 | 234 | 9.0 | 23.0 | 0.00 | 0.00 | 0.00 | 74 | 1018.5 |
| 20260509142704 | 51 | 239 | 10.0 | 23.0 | 0.00 | 0.00 | 0.00 | 74 | 1018.4 |
| 20260509142608 | 51 | 234 | 7.0 | 23.0 | 0.00 | 0.00 | 0.00 | 74 | 1018.6 |
| 20260509142503 | 51 | 227 | 10.0 | 17.0 | 0.00 | 0.00 | 0.00 | 74 | 1018.3 |
| 20260509142403 | 51 | 231 | 11.0 | 17.0 | 0.00 | 0.00 | 0.00 | 74 | 1018.4 |
| 20260509142307 | 51 | 230 | 11.0 | 17.0 | 0.00 | 0.00 | 0.00 | 74 | 1018.4 |
| 20260509142204 | 51 | 242 | 12.0 | 17.0 | 0.00 | 0.00 | 0.00 | 74 | 1018.4 |
| 20260509142103 | 51 | 254 | 8.0 | 17.0 | 0.00 | 0.00 | 0.00 | 74 | 1018.6 |
| 20260509142005 | 51 | 269 | 10.0 | 17.0 | 0.00 | 0.00 | 0.00 | 74 | 1018.4 |
| 20260509141904 | 51 | 264 | 9.0 | 17.0 | 0.00 | 0.00 | 0.00 | 74 | 1018.5 |
| 20260509141804 | 51 | 257 | 11.0 | 22.0 | 0.00 | 0.00 | 0.00 | 74 | 1018.4 |
| 20260509141705 | 51 | 225 | 10.0 | 22.0 | 0.00 | 0.00 | 0.00 | 74 | 1018.5 |
| 20260509141603 | 51 | 220 | 8.0 | 22.0 | 0.00 | 0.00 | 0.00 | 74 | 1018.3 |
| 20260509141503 | 51 | 218 | 11.0 | 22.0 | 0.00 | 0.00 | 0.00 | 74 | 1018.5 |
| 20260509141403 | 51 | 221 | 11.0 | 22.0 | 0.00 | 0.00 | 0.00 | 74 | 1018.3 |
| 20260509141303 | 51 | 225 | 11.0 | 22.0 | 0.00 | 0.00 | 0.00 | 74 | 1018.2 |
| 20260509141207 | 51 | 227 | 8.0 | 18.0 | 0.00 | 0.00 | 0.00 | 74 | 1018.2 |
| 20260509141105 | 51 | 229 | 6.0 | 18.0 | 0.00 | 0.00 | 0.00 | 74 | 1018.3 |
| 20260509141017 | 51 | 231 | 6.0 | 18.0 | 0.00 | 0.00 | 0.00 | 74 | 1018.5 |
| 20260509141004 | 51 | 232 | 6.0 | 18.0 | 0.00 | 0.00 | 0.00 | 74 | 1018.4 |
| 20260509140903 | 51 | 226 | 8.0 | 18.0 | 0.00 | 0.00 | 0.00 | 74 | 1018.3 |
| 20260509140703 | 51 | 208 | 9.0 | 20.0 | 0.00 | 0.00 | 0.00 | 74 | 1018.3 |
| 20260509140603 | 51 | 215 | 8.0 | 20.0 | 0.00 | 0.00 | 0.00 | 74 | 1018.4 |
| 20260509140504 | 51 | 223 | 9.0 | 20.0 | 0.00 | 0.00 | 0.00 | 74 | 1018.5 |
| 20260509140403 | 51 | 234 | 10.0 | 20.0 | 0.00 | 0.00 | 0.00 | 74 | 1018.6 |
| 20260509140303 | 51 | 244 | 11.0 | 20.0 | 0.00 | 0.00 | 0.00 | 74 | 1018.4 |
| 20260509140203 | 51 | 248 | 9.0 | 18.0 | 0.00 | 0.00 | 0.00 | 74 | 1018.3 |
| 20260509140105 | 51 | 244 | 8.0 | 18.0 | 0.00 | 0.00 | 0.00 | 74 | 1018.4 |
| 20260509140005 | 51 | 239 | 12.0 | 18.0 | 0.00 | 0.00 | 0.00 | 74 | 1018.4 |
| 20260509135903 | 51 | 241 | 7.0 | 17.0 | 0.00 | 0.00 | 0.00 | 74 | 1018.3 |
| 20260509135803 | 51 | 235 | 8.0 | 17.0 | 0.00 | 0.00 | 0.00 | 74 | 1018.3 |
| 20260509135703 | 51 | 244 | 9.0 | 17.0 | 0.00 | 0.00 | 0.00 | 74 | 1018.1 |
| 20260509135617 | 51 | 243 | 11.0 | 17.0 | 0.00 | 0.00 | 0.00 | 74 | 1018.0 |
| 20260509135521 | 51 | 236 | 9.0 | 16.0 | 0.00 | 0.00 | 0.00 | 74 | 1018.3 |
| 20260509135505 | 51 | 230 | 9.0 | 16.0 | 0.00 | 0.00 | 0.00 | 74 | 1018.3 |
| 20260509135414 | 51 | 215 | 9.0 | 14.0 | 0.00 | 0.00 | 0.00 | 74 | 1018.1 |
| 20260509135105 | 51 | 219 | 7.0 | 18.0 | 0.00 | 0.00 | 0.00 | 74 | 1018.2 |
| 20260509135005 | 51 | 226 | 7.0 | 18.0 | 0.00 | 0.00 | 0.00 | 74 | 1018.3 |
| 20260509134803 | 51 | 243 | 7.0 | 18.0 | 0.00 | 0.00 | 0.00 | 74 | 1018.0 |
| 20260509134708 | 51 | 233 | 9.0 | 18.0 | 0.00 | 0.00 | 0.00 | 74 | 1018.2 |
| 20260509134604 | 51 | 238 | 8.0 | 17.0 | 0.00 | 0.00 | 0.00 | 74 | 1018.2 |
| 20260509134506 | 51 | 243 | 7.0 | 17.0 | 0.00 | 0.00 | 0.00 | 74 | 1018.2 |
| 20260509134404 | 51 | 239 | 6.0 | 18.0 | 0.00 | 0.00 | 0.00 | 75 | 1018.3 |
| 20260509134305 | 51 | 226 | 7.0 | 18.0 | 0.00 | 0.00 | 0.00 | 75 | 1018.2 |
| 20260509134204 | 51 | 231 | 9.0 | 18.0 | 0.00 | 0.00 | 0.00 | 74 | 1018.2 |
| 20260509134103 | 51 | 240 | 11.0 | 18.0 | 0.00 | 0.00 | 0.00 | 74 | 1018.2 |
| 20260509134004 | 51 | 255 | 7.0 | 18.0 | 0.00 | 0.00 | 0.00 | 74 | 1018.1 |
| 20260509133903 | 51 | 260 | 8.0 | 18.0 | 0.00 | 0.00 | 0.00 | 74 | 1018.2 |
| 20260509133805 | 51 | 258 | 6.0 | 17.0 | 0.00 | 0.00 | 0.00 | 74 | 1018.1 |
| 20260509133704 | 51 | 251 | 5.0 | 17.0 | 0.00 | 0.00 | 0.00 | 75 | 1018.2 |
| 20260509133603 | 51 | 238 | 5.0 | 17.0 | 0.00 | 0.00 | 0.00 | 75 | 1018.1 |
| 20260509133504 | 51 | 229 | 5.0 | 17.0 | 0.00 | 0.00 | 0.00 | 75 | 1018.1 |
| 20260509133403 | 51 | 207 | 11.0 | 21.0 | 0.00 | 0.00 | 0.00 | 75 | 1018.1 |
| 20260509133303 | 51 | 199 | 11.0 | 21.0 | 0.00 | 0.00 | 0.00 | 75 | 1018.1 |
| 20260509133205 | 51 | 190 | 8.0 | 21.0 | 0.00 | 0.00 | 0.00 | 75 | 1018.2 |
| 20260509133105 | 51 | 186 | 8.0 | 21.0 | 0.00 | 0.00 | 0.00 | 75 | 1018.1 |
| 20260509133004 | 51 | 200 | 10.0 | 21.0 | 0.00 | 0.00 | 0.00 | 75 | 1018.4 |
| 20260509132914 | 51 | 229 | 6.0 | 21.0 | 0.00 | 0.00 | 0.00 | 75 | 1018.2 |
| 20260509132903 | 51 | 230 | 6.0 | 21.0 | 0.00 | 0.00 | 0.00 | 75 | 1018.2 |
| 20260509132805 | 51 | 229 | 5.0 | 21.0 | 0.00 | 0.00 | 0.00 | 75 | 1018.0 |
| 20260509132604 | 51 | 234 | 8.0 | 21.0 | 0.00 | 0.00 | 0.00 | 76 | 1018.1 |
| 20260509132513 | 51 | 228 | 11.0 | 21.0 | 0.00 | 0.00 | 0.00 | 76 | 1018.0 |
| 20260509132504 | 51 | 225 | 11.0 | 21.0 | 0.00 | 0.00 | 0.00 | 76 | 1018.0 |
| 20260509132403 | 51 | 209 | 11.0 | 21.0 | 0.00 | 0.00 | 0.00 | 76 | 1018.1 |
| 20260509132204 | 51 | 212 | 5.0 | 24.0 | 0.00 | 0.00 | 0.00 | 76 | 1018.0 |
| 20260509132103 | 50 | 215 | 10.0 | 24.0 | 0.00 | 0.00 | 0.00 | 76 | 1018.1 |
| 20260509132010 | 50 | 217 | 6.0 | 24.0 | 0.00 | 0.00 | 0.00 | 77 | 1017.9 |
| 20260509131903 | 50 | 225 | 8.0 | 24.0 | 0.00 | 0.00 | 0.00 | 77 | 1017.7 |
| 20260509131717 | 50 | 238 | 14.0 | 24.0 | 0.00 | 0.00 | 0.00 | 77 | 1018.0 |
| 20260509131706 | 50 | 240 | 14.0 | 24.0 | 0.00 | 0.00 | 0.00 | 77 | 1018.0 |
| 20260509131603 | 50 | 243 | 9.0 | 22.0 | 0.00 | 0.00 | 0.00 | 77 | 1018.0 |
| 20260509131403 | 50 | 243 | 9.0 | 22.0 | 0.00 | 0.00 | 0.00 | 77 | 1018.0 |
| 20260509131305 | 50 | 242 | 10.0 | 22.0 | 0.00 | 0.00 | 0.00 | 77 | 1017.9 |
| 20260509131203 | 50 | 237 | 9.0 | 22.0 | 0.00 | 0.00 | 0.00 | 77 | 1017.9 |
| 20260509131103 | 50 | 229 | 11.0 | 18.0 | 0.00 | 0.00 | 0.00 | 77 | 1017.8 |
| 20260509131003 | 50 | 225 | 9.0 | 22.0 | 0.00 | 0.00 | 0.00 | 78 | 1018.0 |
| 20260509130904 | 50 | 230 | 8.0 | 22.0 | 0.00 | 0.00 | 0.00 | 78 | 1018.0 |
| 20260509130804 | 50 | 227 | 4.0 | 22.0 | 0.00 | 0.00 | 0.00 | 78 | 1017.9 |
| 20260509130703 | 49 | 223 | 8.0 | 22.0 | 0.00 | 0.00 | 0.00 | 78 | 1017.9 |
| 20260509130603 | 49 | 230 | 9.0 | 22.0 | 0.00 | 0.00 | 0.00 | 79 | 1018.0 |
| 20260509130503 | 49 | 229 | 8.0 | 17.0 | 0.00 | 0.00 | 0.00 | 79 | 1018.0 |
| 20260509130405 | 49 | 213 | 10.0 | 17.0 | 0.00 | 0.00 | 0.00 | 79 | 1017.8 |
| 20260509130305 | 49 | 214 | 8.0 | 17.0 | 0.00 | 0.00 | 0.00 | 79 | 1017.9 |
| 20260509130203 | 49 | 229 | 7.0 | 16.0 | 0.00 | 0.00 | 0.00 | 79 | 1017.8 |
| 20260509130104 | 49 | 224 | 8.0 | 16.0 | 0.00 | 0.00 | 0.00 | 79 | 1017.9 |
| 20260509130013 | 49 | 215 | 8.0 | 16.0 | 0.00 | 0.00 | 0.00 | 79 | 1017.8 |
| 20260509130004 | 49 | 211 | 8.0 | 16.0 | 0.00 | 0.00 | 0.00 | 79 | 1017.8 |
| 20260509125903 | 49 | 225 | 4.0 | 16.0 | 0.00 | 0.00 | 0.00 | 80 | 1017.9 |
| 20260509125815 | 49 | 228 | 4.0 | 16.0 | 0.00 | 0.00 | 0.00 | 80 | 1017.7 |
| 20260509125703 | 49 | 225 | 7.0 | 18.0 | 0.00 | 0.00 | 0.00 | 80 | 1017.7 |
| 20260509125618 | 49 | 227 | 8.0 | 18.0 | 0.00 | 0.00 | 0.00 | 80 | 1017.8 |
| 20260509125505 | 49 | 238 | 8.0 | 20.0 | 0.00 | 0.00 | 0.00 | 80 | 1017.7 |
| 20260509125307 | 49 | 249 | 4.0 | 20.0 | 0.00 | 0.00 | 0.00 | 80 | 1017.8 |
| 20260509125217 | 49 | 246 | 11.0 | 20.0 | 0.00 | 0.00 | 0.00 | 80 | 1017.6 |
| 20260509125203 | 49 | 244 | 11.0 | 20.0 | 0.00 | 0.00 | 0.00 | 80 | 1017.6 |
| 20260509125105 | 49 | 250 | 12.0 | 20.0 | 0.00 | 0.00 | 0.00 | 80 | 1017.7 |
| 20260509124904 | 49 | 251 | 5.0 | 18.0 | 0.00 | 0.00 | 0.00 | 80 | 1017.6 |
| 20260509124804 | 49 | 243 | 11.0 | 18.0 | 0.00 | 0.00 | 0.00 | 80 | 1017.7 |
| 20260509124704 | 49 | 240 | 9.0 | 16.0 | 0.00 | 0.00 | 0.00 | 80 | 1017.6 |
| 20260509124604 | 49 | 236 | 8.0 | 14.0 | 0.00 | 0.00 | 0.00 | 80 | 1017.9 |
| 20260509124504 | 49 | 232 | 4.0 | 14.0 | 0.00 | 0.00 | 0.00 | 80 | 1017.9 |
| 20260509124405 | 49 | 235 | 5.0 | 14.0 | 0.00 | 0.00 | 0.00 | 80 | 1017.8 |
| 20260509124303 | 49 | 244 | 9.0 | 17.0 | 0.00 | 0.00 | 0.00 | 80 | 1017.8 |
| 20260509124205 | 49 | 244 | 8.0 | 22.0 | 0.00 | 0.00 | 0.00 | 80 | 1017.7 |
| 20260509124103 | 49 | 236 | 6.0 | 22.0 | 0.00 | 0.00 | 0.00 | 80 | 1017.7 |
| 20260509124004 | 49 | 239 | 7.0 | 22.0 | 0.00 | 0.00 | 0.00 | 80 | 1017.7 |
| 20260509123907 | 49 | 234 | 6.0 | 22.0 | 0.00 | 0.00 | 0.00 | 81 | 1017.7 |
| 20260509123804 | 49 | 224 | 12.0 | 22.0 | 0.00 | 0.00 | 0.00 | 80 | 1017.7 |
| 20260509123615 | 49 | 225 | 8.0 | 20.0 | 0.00 | 0.00 | 0.00 | 81 | 1017.6 |
| 20260509123507 | 49 | 223 | 8.0 | 20.0 | 0.00 | 0.00 | 0.00 | 81 | 1017.7 |
| 20260509123315 | 49 | 212 | 7.0 | 17.0 | 0.00 | 0.00 | 0.00 | 81 | 1017.7 |
| 20260509123304 | 49 | 216 | 7.0 | 17.0 | 0.00 | 0.00 | 0.00 | 81 | 1017.7 |
| 20260509123205 | 49 | 230 | 7.0 | 20.0 | 0.00 | 0.00 | 0.00 | 81 | 1017.4 |
| 20260509123003 | 49 | 217 | 7.0 | 20.0 | 0.00 | 0.00 | 0.00 | 81 | 1017.5 |
| 20260509122905 | 49 | 209 | 9.0 | 20.0 | 0.00 | 0.00 | 0.00 | 80 | 1017.7 |
| 20260509122805 | 49 | 208 | 10.0 | 20.0 | 0.00 | 0.00 | 0.00 | 81 | 1017.3 |
| 20260509122705 | 49 | 202 | 12.0 | 20.0 | 0.00 | 0.00 | 0.00 | 80 | 1017.6 |
| 20260509122603 | 49 | 213 | 9.0 | 21.0 | 0.00 | 0.00 | 0.00 | 81 | 1017.6 |
| 20260509122504 | 49 | 235 | 5.0 | 21.0 | 0.00 | 0.00 | 0.00 | 81 | 1017.5 |
| 20260509122411 | 49 | 243 | 7.0 | 21.0 | 0.00 | 0.00 | 0.00 | 81 | 1017.4 |
| 20260509122403 | 49 | 247 | 7.0 | 21.0 | 0.00 | 0.00 | 0.00 | 81 | 1017.4 |
| 20260509122103 | 49 | 251 | 11.0 | 21.0 | 0.00 | 0.00 | 0.00 | 81 | 1017.4 |
| 20260509122017 | 49 | 247 | 11.0 | 20.0 | 0.00 | 0.00 | 0.00 | 81 | 1017.4 |
| 20260509122005 | 49 | 245 | 11.0 | 20.0 | 0.00 | 0.00 | 0.00 | 81 | 1017.4 |
| 20260509121903 | 49 | 234 | 8.0 | 17.0 | 0.00 | 0.00 | 0.00 | 81 | 1017.4 |
| 20260509121703 | 49 | 228 | 10.0 | 17.0 | 0.00 | 0.00 | 0.00 | 81 | 1017.4 |
| 20260509121606 | 49 | 234 | 8.0 | 16.0 | 0.00 | 0.00 | 0.00 | 81 | 1017.2 |
| 20260509121505 | 49 | 238 | 5.0 | 20.0 | 0.00 | 0.00 | 0.00 | 82 | 1017.3 |
| 20260509121406 | 49 | 236 | 7.0 | 20.0 | 0.00 | 0.00 | 0.00 | 81 | 1017.2 |
| 20260509121303 | 49 | 228 | 8.0 | 20.0 | 0.00 | 0.00 | 0.00 | 81 | 1017.3 |
| 20260509121203 | 49 | 222 | 8.0 | 20.0 | 0.00 | 0.00 | 0.00 | 81 | 1017.5 |
| 20260509121103 | 49 | 220 | 9.0 | 20.0 | 0.00 | 0.00 | 0.00 | 81 | 1017.1 |
| 20260509121003 | 49 | 216 | 8.0 | 20.0 | 0.00 | 0.00 | 0.00 | 81 | 1017.3 |
| 20260509120905 | 49 | 216 | 6.0 | 20.0 | 0.00 | 0.00 | 0.00 | 81 | 1017.2 |
| 20260509120805 | 49 | 220 | 8.0 | 20.0 | 0.00 | 0.00 | 0.00 | 81 | 1017.2 |
| 20260509120703 | 49 | 220 | 8.0 | 20.0 | 0.00 | 0.00 | 0.00 | 81 | 1017.1 |
| 20260509120603 | 49 | 213 | 4.0 | 17.0 | 0.00 | 0.00 | 0.00 | 81 | 1017.2 |
| 20260509120503 | 49 | 210 | 6.0 | 18.0 | 0.00 | 0.00 | 0.00 | 81 | 1017.4 |
| 20260509120404 | 49 | 219 | 6.0 | 18.0 | 0.00 | 0.00 | 0.00 | 81 | 1017.1 |
| 20260509120304 | 49 | 222 | 7.0 | 18.0 | 0.00 | 0.00 | 0.00 | 81 | 1017.3 |
| 20260509120217 | 49 | 219 | 7.0 | 21.0 | 0.00 | 0.00 | 0.00 | 81 | 1017.2 |
| 20260509120205 | 49 | 221 | 6.0 | 21.0 | 0.00 | 0.00 | 0.00 | 81 | 1017.1 |
| 20260509120104 | 49 | 234 | 10.0 | 21.0 | 0.00 | 0.00 | 0.00 | 81 | 1017.1 |
| 20260509115903 | 49 | 240 | 11.0 | 21.0 | 0.00 | 0.00 | 0.00 | 81 | 1017.2 |
| 20260509115805 | 49 | 234 | 11.0 | 21.0 | 0.00 | 0.00 | 0.00 | 81 | 1016.9 |
| 20260509115703 | 49 | 241 | 10.0 | 17.0 | 0.00 | 0.00 | 0.00 | 81 | 1017.1 |
| 20260509115604 | 49 | 243 | 7.0 | 22.0 | 0.00 | 0.00 | 0.00 | 81 | 1017.1 |
| 20260509115503 | 49 | 239 | 5.0 | 22.0 | 0.00 | 0.00 | 0.00 | 81 | 1017.0 |
| 20260509115405 | 49 | 239 | 10.0 | 22.0 | 0.00 | 0.00 | 0.00 | 81 | 1016.9 |
| 20260509115319 | 49 | 244 | 7.0 | 22.0 | 0.00 | 0.00 | 0.00 | 81 | 1017.1 |
| 20260509115306 | 49 | 245 | 7.0 | 22.0 | 0.00 | 0.00 | 0.00 | 81 | 1017.1 |
| 20260509115218 | 49 | 250 | 9.0 | 22.0 | 0.00 | 0.00 | 0.00 | 81 | 1016.9 |
| 20260509115204 | 49 | 252 | 9.0 | 22.0 | 0.00 | 0.00 | 0.00 | 81 | 1016.9 |
| 20260509115116 | 49 | 245 | 12.0 | 22.0 | 0.00 | 0.00 | 0.00 | 81 | 1016.8 |
| 20260509114803 | 49 | 241 | 6.0 | 18.0 | 0.00 | 0.00 | 0.00 | 81 | 1016.7 |
| 20260509114704 | 49 | 233 | 11.0 | 23.0 | 0.00 | 0.00 | 0.00 | 81 | 1016.9 |
| 20260509114605 | 49 | 230 | 11.0 | 23.0 | 0.00 | 0.00 | 0.00 | 81 | 1017.1 |
| 20260509114506 | 49 | 236 | 9.0 | 23.0 | 0.00 | 0.00 | 0.00 | 81 | 1017.1 |
| 20260509114404 | 49 | 237 | 8.0 | 23.0 | 0.00 | 0.00 | 0.00 | 81 | 1016.8 |
| 20260509114303 | 49 | 238 | 10.0 | 23.0 | 0.00 | 0.00 | 0.00 | 81 | 1016.8 |
| 20260509114205 | 49 | 239 | 11.0 | 18.0 | 0.00 | 0.00 | 0.00 | 81 | 1016.8 |
| 20260509114103 | 49 | 244 | 11.0 | 18.0 | 0.00 | 0.00 | 0.00 | 81 | 1016.7 |
| 20260509114016 | 49 | 243 | 9.0 | 16.0 | 0.00 | 0.00 | 0.00 | 81 | 1016.8 |
| 20260509114006 | 49 | 241 | 9.0 | 16.0 | 0.00 | 0.00 | 0.00 | 81 | 1016.8 |
| 20260509113903 | 49 | 245 | 8.0 | 16.0 | 0.00 | 0.00 | 0.00 | 81 | 1016.8 |
| 20260509113704 | 49 | 242 | 9.0 | 14.0 | 0.00 | 0.00 | 0.00 | 82 | 1016.6 |
| 20260509113603 | 49 | 239 | 8.0 | 14.0 | 0.00 | 0.00 | 0.00 | 82 | 1016.7 |
| 20260509113509 | 49 | 243 | 5.0 | 11.0 | 0.00 | 0.00 | 0.00 | 82 | 1016.7 |
| 20260509113403 | 49 | 238 | 6.0 | 17.0 | 0.00 | 0.00 | 0.00 | 82 | 1016.6 |
| 20260509113316 | 49 | 240 | 6.0 | 17.0 | 0.00 | 0.00 | 0.00 | 82 | 1016.6 |
| 20260509113304 | 49 | 239 | 6.0 | 17.0 | 0.00 | 0.00 | 0.00 | 82 | 1016.6 |
| 20260509113204 | 49 | 233 | 6.0 | 17.0 | 0.00 | 0.00 | 0.00 | 82 | 1016.7 |
| 20260509113113 | 49 | 232 | 6.0 | 17.0 | 0.00 | 0.00 | 0.00 | 82 | 1016.5 |
| 20260509113005 | 49 | 225 | 8.0 | 17.0 | 0.00 | 0.00 | 0.00 | 82 | 1016.6 |
| 20260509112803 | 49 | 230 | 7.0 | 20.0 | 0.00 | 0.00 | 0.00 | 82 | 1016.6 |
| 20260509112703 | 49 | 222 | 6.0 | 20.0 | 0.00 | 0.00 | 0.00 | 82 | 1016.8 |
| 20260509112604 | 49 | 231 | 11.0 | 20.0 | 0.00 | 0.00 | 0.00 | 82 | 1016.5 |
| 20260509112404 | 49 | 243 | 10.0 | 20.0 | 0.00 | 0.00 | 0.00 | 82 | 1016.7 |
| 20260509112306 | 49 | 242 | 12.0 | 18.0 | 0.00 | 0.00 | 0.00 | 82 | 1016.8 |
| 20260509112203 | 49 | 269 | 6.0 | 17.0 | 0.00 | 0.00 | 0.00 | 82 | 1016.7 |
| 20260509112105 | 49 | 265 | 6.0 | 17.0 | 0.00 | 0.00 | 0.00 | 82 | 1016.4 |
| 20260509112003 | 49 | 253 | 9.0 | 17.0 | 0.00 | 0.00 | 0.00 | 82 | 1016.4 |
| 20260509111904 | 49 | 244 | 12.0 | 16.0 | 0.00 | 0.00 | 0.00 | 82 | 1016.4 |
| 20260509111803 | 49 | 245 | 9.0 | 16.0 | 0.00 | 0.00 | 0.00 | 82 | 1016.5 |
| 20260509111703 | 49 | 231 | 9.0 | 16.0 | 0.00 | 0.00 | 0.00 | 82 | 1016.7 |
| 20260509111603 | 49 | 227 | 7.0 | 15.0 | 0.00 | 0.00 | 0.00 | 82 | 1016.4 |
| 20260509111506 | 49 | 236 | 7.0 | 15.0 | 0.00 | 0.00 | 0.00 | 82 | 1016.5 |
| 20260509111403 | 49 | 243 | 8.0 | 15.0 | 0.00 | 0.00 | 0.00 | 82 | 1016.4 |
| 20260509111303 | 49 | 246 | 10.0 | 15.0 | 0.00 | 0.00 | 0.00 | 82 | 1016.5 |
| 20260509111204 | 49 | 239 | 6.0 | 13.0 | 0.00 | 0.00 | 0.00 | 82 | 1016.6 |
| 20260509111104 | 49 | 241 | 7.0 | 13.0 | 0.00 | 0.00 | 0.00 | 82 | 1016.4 |
| 20260509111005 | 49 | 240 | 7.0 | 18.0 | 0.00 | 0.00 | 0.00 | 83 | 1016.4 |
| 20260509110903 | 49 | 246 | 6.0 | 18.0 | 0.00 | 0.00 | 0.00 | 83 | 1016.4 |
| 20260509110804 | 49 | 247 | 5.0 | 18.0 | 0.00 | 0.00 | 0.00 | 83 | 1016.5 |
| 20260509110704 | 49 | 253 | 5.0 | 18.0 | 0.00 | 0.00 | 0.00 | 83 | 1016.4 |
| 20260509110604 | 49 | 252 | 10.0 | 18.0 | 0.00 | 0.00 | 0.00 | 83 | 1016.5 |
| 20260509110504 | 49 | 250 | 6.0 | 18.0 | 0.00 | 0.00 | 0.00 | 83 | 1016.4 |
| 20260509110415 | 49 | 244 | 13.0 | 18.0 | 0.00 | 0.00 | 0.00 | 83 | 1016.3 |
| 20260509110403 | 49 | 243 | 13.0 | 18.0 | 0.00 | 0.00 | 0.00 | 83 | 1016.3 |
| 20260509110305 | 49 | 238 | 8.0 | 16.0 | 0.00 | 0.00 | 0.00 | 83 | 1016.4 |
| 20260509110104 | 49 | 219 | 5.0 | 14.0 | 0.00 | 0.00 | 0.00 | 83 | 1016.2 |
| 20260509110005 | 48 | 218 | 7.0 | 14.0 | 0.00 | 0.00 | 0.00 | 84 | 1016.2 |
| 20260509105904 | 48 | 221 | 10.0 | 14.0 | 0.00 | 0.00 | 0.00 | 84 | 1016.2 |
| 20260509105803 | 48 | 224 | 10.0 | 14.0 | 0.00 | 0.00 | 0.00 | 84 | 1016.3 |
| 20260509105703 | 48 | 223 | 9.0 | 14.0 | 0.00 | 0.00 | 0.00 | 84 | 1016.2 |
| 20260509105604 | 48 | 230 | 9.0 | 14.0 | 0.00 | 0.00 | 0.00 | 85 | 1016.2 |
| 20260509105504 | 48 | 234 | 8.0 | 14.0 | 0.00 | 0.00 | 0.00 | 85 | 1016.1 |
| 20260509105416 | 48 | 235 | 7.0 | 13.0 | 0.00 | 0.00 | 0.00 | 85 | 1016.2 |
| 20260509105406 | 48 | 234 | 8.0 | 13.0 | 0.00 | 0.00 | 0.00 | 85 | 1016.2 |
| 20260509105306 | 48 | 231 | 4.0 | 13.0 | 0.00 | 0.00 | 0.00 | 86 | 1016.3 |
| 20260509105213 | 48 | 236 | 5.0 | 17.0 | 0.00 | 0.00 | 0.00 | 86 | 1016.2 |
| 20260509105104 | 48 | 242 | 7.0 | 17.0 | 0.00 | 0.00 | 0.00 | 86 | 1016.2 |
| 20260509104803 | 48 | 243 | 4.0 | 17.0 | 0.00 | 0.00 | 0.00 | 87 | 1016.1 |
| 20260509104703 | 48 | 241 | 8.0 | 17.0 | 0.00 | 0.00 | 0.00 | 87 | 1015.9 |
| 20260509104605 | 48 | 235 | 6.0 | 11.0 | 0.00 | 0.00 | 0.00 | 87 | 1016.2 |
| 20260509104503 | 48 | 230 | 7.0 | 11.0 | 0.00 | 0.00 | 0.00 | 87 | 1016.1 |
| 20260509104403 | 47 | 229 | 7.0 | 11.0 | 0.00 | 0.00 | 0.00 | 87 | 1016.1 |
| 20260509104303 | 47 | 233 | 6.0 | 17.0 | 0.00 | 0.00 | 0.00 | 88 | 1016.2 |
| 20260509104204 | 47 | 240 | 6.0 | 17.0 | 0.00 | 0.00 | 0.00 | 88 | 1016.1 |
| 20260509104109 | 47 | 247 | 7.0 | 17.0 | 0.00 | 0.00 | 0.00 | 87 | 1015.9 |
| 20260509104004 | 47 | 250 | 6.0 | 17.0 | 0.00 | 0.00 | 0.00 | 87 | 1016.2 |
| 20260509103903 | 47 | 243 | 4.0 | 17.0 | 0.00 | 0.00 | 0.00 | 87 | 1016.2 |
| 20260509103803 | 47 | 241 | 8.0 | 17.0 | 0.00 | 0.00 | 0.00 | 87 | 1016.0 |
| 20260509103704 | 47 | 235 | 8.0 | 16.0 | 0.00 | 0.00 | 0.00 | 87 | 1016.1 |
| 20260509103603 | 47 | 228 | 10.0 | 16.0 | 0.00 | 0.00 | 0.00 | 87 | 1016.0 |
| 20260509103505 | 48 | 227 | 8.0 | 16.0 | 0.00 | 0.00 | 0.00 | 87 | 1016.1 |
| 20260509103403 | 48 | 232 | 5.0 | 16.0 | 0.00 | 0.00 | 0.00 | 87 | 1015.9 |
| 20260509103306 | 48 | 230 | 8.0 | 16.0 | 0.00 | 0.00 | 0.00 | 87 | 1016.1 |
| 20260509103207 | 48 | 235 | 11.0 | 16.0 | 0.00 | 0.00 | 0.00 | 86 | 1015.8 |
| 20260509103103 | 48 | 240 | 7.0 | 16.0 | 0.00 | 0.00 | 0.00 | 86 | 1016.0 |
| 20260509103004 | 48 | 232 | 8.0 | 16.0 | 0.00 | 0.00 | 0.00 | 86 | 1016.1 |
| 20260509102903 | 48 | 227 | 8.0 | 16.0 | 0.00 | 0.00 | 0.00 | 86 | 1016.1 |
| 20260509102803 | 48 | 226 | 9.0 | 16.0 | 0.00 | 0.00 | 0.00 | 85 | 1016.1 |
| 20260509102703 | 48 | 227 | 6.0 | 15.0 | 0.00 | 0.00 | 0.00 | 85 | 1016.2 |
| 20260509102605 | 48 | 232 | 8.0 | 16.0 | 0.00 | 0.00 | 0.00 | 85 | 1016.1 |
| 20260509102503 | 48 | 243 | 8.0 | 16.0 | 0.00 | 0.00 | 0.00 | 85 | 1016.0 |
| 20260509102403 | 48 | 245 | 6.0 | 16.0 | 0.00 | 0.00 | 0.00 | 85 | 1016.0 |
| 20260509102306 | 48 | 248 | 8.0 | 16.0 | 0.00 | 0.00 | 0.00 | 84 | 1016.0 |
| 20260509102203 | 48 | 249 | 8.0 | 16.0 | 0.00 | 0.00 | 0.00 | 84 | 1015.8 |
| 20260509102106 | 48 | 243 | 9.0 | 16.0 | 0.00 | 0.00 | 0.00 | 84 | 1016.1 |
| 20260509102003 | 48 | 240 | 8.0 | 16.0 | 0.00 | 0.00 | 0.00 | 84 | 1015.8 |
| 20260509101906 | 48 | 246 | 11.0 | 16.0 | 0.00 | 0.00 | 0.00 | 84 | 1015.8 |
| 20260509101803 | 48 | 241 | 8.0 | 14.0 | 0.00 | 0.00 | 0.00 | 84 | 1016.1 |
| 20260509101703 | 48 | 236 | 8.0 | 14.0 | 0.00 | 0.00 | 0.00 | 84 | 1015.8 |
| 20260509101605 | 48 | 215 | 8.0 | 18.0 | 0.00 | 0.00 | 0.00 | 84 | 1015.9 |
| 20260509101504 | 48 | 215 | 8.0 | 20.0 | 0.00 | 0.00 | 0.00 | 84 | 1015.9 |
| 20260509101403 | 48 | 208 | 8.0 | 20.0 | 0.00 | 0.00 | 0.00 | 84 | 1016.0 |
| 20260509101306 | 49 | 211 | 6.0 | 20.0 | 0.00 | 0.00 | 0.00 | 84 | 1015.8 |
| 20260509101104 | 48 | 229 | 9.0 | 20.0 | 0.00 | 0.00 | 0.00 | 84 | 1015.9 |
| 20260509101003 | 49 | 237 | 8.0 | 13.0 | 0.00 | 0.00 | 0.00 | 84 | 1015.9 |
| 20260509100903 | 49 | 238 | 8.0 | 13.0 | 0.00 | 0.00 | 0.00 | 84 | 1015.7 |
| 20260509100804 | 49 | 240 | 6.0 | 13.0 | 0.00 | 0.00 | 0.00 | 84 | 1015.7 |
| 20260509100704 | 49 | 241 | 8.0 | 13.0 | 0.00 | 0.00 | 0.00 | 84 | 1015.7 |
| 20260509100619 | 49 | 241 | 7.0 | 13.0 | 0.00 | 0.00 | 0.00 | 84 | 1015.8 |
| 20260509100603 | 49 | 241 | 5.0 | 13.0 | 0.00 | 0.00 | 0.00 | 84 | 1015.6 |
| 20260509100504 | 49 | 242 | 6.0 | 13.0 | 0.00 | 0.00 | 0.00 | 83 | 1015.7 |
| 20260509100305 | 49 | 246 | 7.0 | 13.0 | 0.00 | 0.00 | 0.00 | 84 | 1015.6 |
| 20260509100218 | 49 | 240 | 8.0 | 13.0 | 0.00 | 0.00 | 0.00 | 84 | 1015.6 |
| 20260509100205 | 49 | 239 | 8.0 | 13.0 | 0.00 | 0.00 | 0.00 | 84 | 1015.5 |
| 20260509100104 | 49 | 236 | 8.0 | 11.0 | 0.00 | 0.00 | 0.00 | 84 | 1015.6 |
| 20260509095904 | 49 | 235 | 8.0 | 11.0 | 0.00 | 0.00 | 0.00 | 84 | 1015.5 |
| 20260509095804 | 49 | 226 | 8.0 | 11.0 | 0.00 | 0.00 | 0.00 | 84 | 1015.6 |
| 20260509095603 | 48 | 236 | 7.0 | 11.0 | 0.00 | 0.00 | 0.00 | 85 | 1015.4 |
| 20260509095505 | 48 | 243 | 5.0 | 11.0 | 0.00 | 0.00 | 0.00 | 85 | 1015.6 |
| 20260509095417 | 48 | 244 | 4.0 | 11.0 | 0.00 | 0.00 | 0.00 | 85 | 1015.7 |
| 20260509095404 | 48 | 240 | 3.0 | 20.0 | 0.00 | 0.00 | 0.00 | 85 | 1015.5 |
| 20260509095306 | 48 | 238 | 7.0 | 20.0 | 0.00 | 0.00 | 0.00 | 85 | 1015.7 |
| 20260509095219 | 49 | 241 | 5.0 | 20.0 | 0.00 | 0.00 | 0.00 | 85 | 1015.6 |
| 20260509095104 | 48 | 241 | 8.0 | 20.0 | 0.00 | 0.00 | 0.00 | 85 | 1015.3 |
| 20260509095016 | 48 | 237 | 7.0 | 20.0 | 0.00 | 0.00 | 0.00 | 85 | 1015.5 |
| 20260509094905 | 48 | 240 | 9.0 | 20.0 | 0.00 | 0.00 | 0.00 | 85 | 1015.3 |
| 20260509094704 | 48 | 247 | 8.0 | 13.0 | 0.00 | 0.00 | 0.00 | 85 | 1015.5 |
| 20260509094606 | 48 | 241 | 8.0 | 13.0 | 0.00 | 0.00 | 0.00 | 85 | 1015.5 |
| 20260509094504 | 48 | 239 | 8.0 | 13.0 | 0.00 | 0.00 | 0.00 | 85 | 1015.6 |
| 20260509094403 | 48 | 229 | 8.0 | 13.0 | 0.00 | 0.00 | 0.00 | 85 | 1015.5 |
| 20260509094303 | 48 | 229 | 5.0 | 13.0 | 0.00 | 0.00 | 0.00 | 85 | 1015.4 |
| 20260509094204 | 48 | 230 | 8.0 | 15.0 | 0.00 | 0.00 | 0.00 | 85 | 1015.5 |
| 20260509094103 | 48 | 237 | 7.0 | 15.0 | 0.00 | 0.00 | 0.00 | 85 | 1015.5 |
| 20260509094005 | 48 | 235 | 4.0 | 17.0 | 0.00 | 0.00 | 0.00 | 85 | 1015.4 |
| 20260509093903 | 48 | 237 | 10.0 | 17.0 | 0.00 | 0.00 | 0.00 | 85 | 1015.5 |
| 20260509093804 | 48 | 242 | 7.0 | 17.0 | 0.00 | 0.00 | 0.00 | 85 | 1015.3 |
| 20260509093705 | 48 | 238 | 11.0 | 17.0 | 0.00 | 0.00 | 0.00 | 86 | 1015.3 |
| 20260509093505 | 48 | 235 | 11.0 | 17.0 | 0.00 | 0.00 | 0.00 | 86 | 1015.2 |
| 20260509093403 | 48 | 239 | 11.0 | 16.0 | 0.00 | 0.00 | 0.00 | 87 | 1015.4 |
| 20260509093303 | 48 | 227 | 8.0 | 14.0 | 0.00 | 0.00 | 0.00 | 87 | 1015.2 |
| 20260509093204 | 48 | 229 | 6.0 | 14.0 | 0.00 | 0.00 | 0.00 | 87 | 1015.3 |
| 20260509093103 | 48 | 233 | 6.0 | 14.0 | 0.00 | 0.00 | 0.00 | 87 | 1015.2 |
| 20260509093003 | 48 | 221 | 8.0 | 15.0 | 0.00 | 0.00 | 0.00 | 88 | 1015.3 |
| 20260509092803 | 48 | 239 | 4.0 | 16.0 | 0.00 | 0.00 | 0.00 | 88 | 1015.2 |
| 20260509092705 | 48 | 231 | 4.0 | 16.0 | 0.00 | 0.00 | 0.00 | 88 | 1015.1 |
| 20260509092603 | 48 | 223 | 8.0 | 18.0 | 0.00 | 0.00 | 0.00 | 88 | 1015.0 |
| 20260509092503 | 48 | 231 | 8.0 | 18.0 | 0.00 | 0.00 | 0.00 | 89 | 1015.2 |
| 20260509092403 | 48 | 227 | 11.0 | 18.0 | 0.00 | 0.00 | 0.00 | 89 | 1015.1 |
| 20260509092305 | 48 | 222 | 6.0 | 18.0 | 0.00 | 0.00 | 0.00 | 89 | 1015.4 |
| 20260509092203 | 48 | 227 | 11.0 | 18.0 | 0.00 | 0.00 | 0.00 | 89 | 1015.1 |
| 20260509092115 | 48 | 229 | 7.0 | 14.0 | 0.00 | 0.00 | 0.00 | 89 | 1014.9 |
| 20260509092104 | 48 | 231 | 7.0 | 14.0 | 0.00 | 0.00 | 0.00 | 89 | 1014.9 |
| 20260509092004 | 48 | 233 | 8.0 | 14.0 | 0.00 | 0.00 | 0.00 | 89 | 1015.1 |
| 20260509091816 | 48 | 234 | 8.0 | 14.0 | 0.00 | 0.00 | 0.00 | 89 | 1014.9 |
| 20260509091804 | 48 | 235 | 6.0 | 13.0 | 0.00 | 0.00 | 0.00 | 89 | 1015.0 |
| 20260509091705 | 48 | 234 | 8.0 | 13.0 | 0.00 | 0.00 | 0.00 | 89 | 1014.9 |
| 20260509091504 | 48 | 219 | 8.0 | 16.0 | 0.00 | 0.00 | 0.00 | 89 | 1014.9 |
| 20260509091404 | 48 | 213 | 4.0 | 16.0 | 0.00 | 0.00 | 0.00 | 89 | 1014.8 |
| 20260509091303 | 48 | 207 | 4.0 | 16.0 | 0.00 | 0.00 | 0.00 | 89 | 1014.9 |
| 20260509091205 | 48 | 211 | 5.0 | 16.0 | 0.00 | 0.00 | 0.00 | 89 | 1014.8 |
| 20260509091105 | 48 | 219 | 7.0 | 21.0 | 0.00 | 0.00 | 0.00 | 88 | 1014.9 |
| 20260509091003 | 48 | 224 | 9.0 | 21.0 | 0.00 | 0.00 | 0.00 | 88 | 1014.5 |
| 20260509090905 | 48 | 228 | 5.0 | 21.0 | 0.00 | 0.00 | 0.00 | 88 | 1014.5 |
| 20260509090804 | 48 | 230 | 5.0 | 21.0 | 0.00 | 0.00 | 0.00 | 87 | 1014.5 |
| 20260509090704 | 48 | 229 | 7.0 | 21.0 | 0.00 | 0.00 | 0.00 | 87 | 1014.5 |
| 20260509090604 | 48 | 229 | 8.0 | 17.0 | 0.00 | 0.00 | 0.00 | 87 | 1014.5 |
| 20260509090504 | 48 | 229 | 9.0 | 17.0 | 0.00 | 0.00 | 0.00 | 87 | 1014.5 |
| 20260509090405 | 48 | 230 | 10.0 | 17.0 | 0.00 | 0.00 | 0.00 | 86 | 1014.5 |
| 20260509090304 | 48 | 233 | 9.0 | 17.0 | 0.00 | 0.00 | 0.00 | 86 | 1014.5 |
| 20260509090203 | 49 | 250 | 8.0 | 18.0 | 0.00 | 0.00 | 0.00 | 86 | 1014.5 |
| 20260509090104 | 49 | 264 | 10.0 | 18.0 | 0.00 | 0.00 | 0.00 | 85 | 1014.5 |
| 20260509090016 | 49 | 267 | 8.0 | 18.0 | 0.00 | 0.00 | 0.00 | 85 | 1014.5 |
| 20260509085903 | 49 | 264 | 7.0 | 18.0 | 0.00 | 0.00 | 0.00 | 85 | 1014.4 |
| 20260509085603 | 49 | 235 | 8.0 | 16.0 | 0.00 | 0.00 | 0.00 | 85 | 1014.5 |
| 20260509085505 | 49 | 234 | 7.0 | 16.0 | 0.00 | 0.00 | 0.00 | 85 | 1014.5 |
| 20260509085403 | 49 | 234 | 8.0 | 16.0 | 0.00 | 0.00 | 0.00 | 84 | 1014.2 |
| 20260509085306 | 49 | 215 | 5.0 | 15.0 | 0.00 | 0.00 | 0.00 | 84 | 1014.1 |
| 20260509085203 | 49 | 223 | 10.0 | 20.0 | 0.00 | 0.00 | 0.00 | 84 | 1014.1 |
| 20260509085104 | 49 | 232 | 10.0 | 20.0 | 0.00 | 0.00 | 0.00 | 84 | 1014.1 |
| 20260509085003 | 49 | 230 | 8.0 | 20.0 | 0.00 | 0.00 | 0.00 | 84 | 1014.1 |
| 20260509084903 | 49 | 233 | 9.0 | 20.0 | 0.00 | 0.00 | 0.00 | 84 | 1014.1 |
| 20260509084814 | 49 | 234 | 8.0 | 20.0 | 0.00 | 0.00 | 0.00 | 84 | 1014.1 |
| 20260509084804 | 49 | 233 | 8.0 | 20.0 | 0.00 | 0.00 | 0.00 | 84 | 1014.1 |
| 20260509084703 | 49 | 236 | 11.0 | 20.0 | 0.00 | 0.00 | 0.00 | 84 | 1014.1 |
| 20260509084503 | 49 | 229 | 4.0 | 18.0 | 0.00 | 0.00 | 0.00 | 84 | 1014.1 |
| 20260509084405 | 49 | 231 | 8.0 | 18.0 | 0.00 | 0.00 | 0.00 | 84 | 1014.1 |
| 20260509084303 | 49 | 237 | 9.0 | 18.0 | 0.00 | 0.00 | 0.00 | 84 | 1014.1 |
| 20260509084203 | 49 | 235 | 11.0 | 18.0 | 0.00 | 0.00 | 0.00 | 84 | 1014.1 |
| 20260509084106 | 49 | 241 | 9.0 | 16.0 | 0.00 | 0.00 | 0.00 | 84 | 1014.1 |
| 20260509084003 | 49 | 237 | 10.0 | 15.0 | 0.00 | 0.00 | 0.00 | 84 | 1014.1 |
| 20260509083904 | 49 | 236 | 8.0 | 15.0 | 0.00 | 0.00 | 0.00 | 84 | 1014.1 |
| 20260509083804 | 49 | 233 | 8.0 | 16.0 | 0.00 | 0.00 | 0.00 | 84 | 1014.1 |
| 20260509083703 | 49 | 237 | 9.0 | 16.0 | 0.00 | 0.00 | 0.00 | 84 | 1014.1 |
| 20260509083617 | 49 | 235 | 8.0 | 16.0 | 0.00 | 0.00 | 0.00 | 84 | 1014.1 |
| 20260509083605 | 49 | 233 | 8.0 | 16.0 | 0.00 | 0.00 | 0.00 | 84 | 1014.1 |
| 20260509083503 | 49 | 237 | 7.0 | 16.0 | 0.00 | 0.00 | 0.00 | 84 | 1014.1 |
| 20260509083303 | 49 | 238 | 7.0 | 13.0 | 0.00 | 0.00 | 0.00 | 84 | 1014.1 |
| 20260509083203 | 49 | 233 | 8.0 | 14.0 | 0.00 | 0.00 | 0.00 | 84 | 1014.1 |
| 20260509083105 | 49 | 236 | 7.0 | 14.0 | 0.00 | 0.00 | 0.00 | 84 | 1014.1 |
| 20260509083004 | 49 | 246 | 8.0 | 14.0 | 0.00 | 0.00 | 0.00 | 84 | 1014.4 |
| 20260509082904 | 49 | 246 | 8.0 | 17.0 | 0.00 | 0.00 | 0.00 | 84 | 1014.1 |
| 20260509082804 | 49 | 248 | 6.0 | 17.0 | 0.00 | 0.00 | 0.00 | 84 | 1014.1 |
| 20260509082704 | 49 | 249 | 10.0 | 17.0 | 0.00 | 0.00 | 0.00 | 84 | 1014.2 |
| 20260509082605 | 49 | 246 | 6.0 | 17.0 | 0.00 | 0.00 | 0.00 | 84 | 1013.9 |
| 20260509082505 | 49 | 236 | 5.0 | 17.0 | 0.00 | 0.00 | 0.00 | 84 | 1014.2 |
| 20260509082405 | 49 | 235 | 10.0 | 17.0 | 0.00 | 0.00 | 0.00 | 84 | 1014.1 |
| 20260509082306 | 49 | 234 | 10.0 | 17.0 | 0.00 | 0.00 | 0.00 | 84 | 1014.1 |
| 20260509082205 | 48 | 234 | 7.0 | 13.0 | 0.00 | 0.00 | 0.00 | 84 | 1014.0 |
| 20260509082116 | 48 | 240 | 9.0 | 13.0 | 0.00 | 0.00 | 0.00 | 84 | 1014.0 |
| 20260509082103 | 48 | 241 | 9.0 | 13.0 | 0.00 | 0.00 | 0.00 | 84 | 1014.0 |
| 20260509082004 | 48 | 252 | 6.0 | 13.0 | 0.00 | 0.00 | 0.00 | 84 | 1014.0 |
| 20260509081805 | 48 | 253 | 5.0 | 15.0 | 0.00 | 0.00 | 0.00 | 85 | 1014.0 |
| 20260509081705 | 48 | 255 | 7.0 | 15.0 | 0.00 | 0.00 | 0.00 | 85 | 1014.0 |
| 20260509081603 | 48 | 252 | 4.0 | 15.0 | 0.00 | 0.00 | 0.00 | 85 | 1013.9 |
| 20260509081504 | 48 | 244 | 4.0 | 16.0 | 0.00 | 0.00 | 0.00 | 85 | 1013.8 |
| 20260509081416 | 48 | 241 | 7.0 | 16.0 | 0.00 | 0.00 | 0.00 | 85 | 1013.7 |
| 20260509081403 | 48 | 241 | 6.0 | 16.0 | 0.00 | 0.00 | 0.00 | 85 | 1013.9 |
| 20260509081304 | 48 | 240 | 10.0 | 16.0 | 0.00 | 0.00 | 0.00 | 85 | 1014.0 |
| 20260509081218 | 48 | 244 | 9.0 | 16.0 | 0.00 | 0.00 | 0.00 | 85 | 1013.8 |
| 20260509081105 | 48 | 236 | 8.0 | 16.0 | 0.00 | 0.00 | 0.00 | 85 | 1013.9 |
| 20260509080903 | 48 | 235 | 4.0 | 13.0 | 0.00 | 0.00 | 0.00 | 85 | 1013.9 |
| 20260509080804 | 48 | 235 | 6.0 | 13.0 | 0.00 | 0.00 | 0.00 | 85 | 1013.7 |
| 20260509080705 | 48 | 225 | 6.0 | 13.0 | 0.00 | 0.00 | 0.00 | 85 | 1013.6 |
| 20260509080604 | 48 | 227 | 7.0 | 13.0 | 0.00 | 0.00 | 0.00 | 85 | 1013.4 |
| 20260509080513 | 48 | 231 | 7.0 | 13.0 | 0.00 | 0.00 | 0.00 | 85 | 1013.5 |
| 20260509080504 | 48 | 232 | 7.0 | 13.0 | 0.00 | 0.00 | 0.00 | 85 | 1013.5 |
| 20260509080404 | 48 | 240 | 4.0 | 13.0 | 0.00 | 0.00 | 0.00 | 85 | 1013.7 |
| 20260509080204 | 48 | 254 | 7.0 | 15.0 | 0.00 | 0.00 | 0.00 | 85 | 1013.7 |
| 20260509080103 | 48 | 257 | 8.0 | 15.0 | 0.00 | 0.00 | 0.00 | 85 | 1013.3 |
| 20260509080004 | 48 | 257 | 7.0 | 15.0 | 0.00 | 0.00 | 0.00 | 85 | 1013.6 |
| 20260509075805 | 48 | 252 | 7.0 | 15.0 | 0.00 | 0.00 | 0.00 | 85 | 1013.6 |
| 20260509075703 | 48 | 239 | 6.0 | 15.0 | 0.00 | 0.00 | 0.00 | 85 | 1013.3 |
| 20260509075603 | 48 | 238 | 7.0 | 15.0 | 0.00 | 0.00 | 0.00 | 85 | 1013.3 |
| 20260509075503 | 48 | 241 | 7.0 | 15.0 | 0.00 | 0.00 | 0.00 | 85 | 1013.4 |
| 20260509075403 | 48 | 250 | 8.0 | 15.0 | 0.00 | 0.00 | 0.00 | 85 | 1013.6 |
| 20260509075307 | 48 | 238 | 9.0 | 15.0 | 0.00 | 0.00 | 0.00 | 85 | 1013.4 |
| 20260509075203 | 48 | 240 | 4.0 | 15.0 | 0.00 | 0.00 | 0.00 | 85 | 1013.4 |
| 20260509075104 | 48 | 236 | 4.0 | 15.0 | 0.00 | 0.00 | 0.00 | 85 | 1013.4 |
| 20260509075003 | 48 | 232 | 7.0 | 15.0 | 0.00 | 0.00 | 0.00 | 85 | 1013.0 |
| 20260509074905 | 48 | 220 | 9.0 | 15.0 | 0.00 | 0.00 | 0.00 | 85 | 1013.3 |
| 20260509074803 | 48 | 223 | 8.0 | 16.0 | 0.00 | 0.00 | 0.00 | 85 | 1013.2 |
| 20260509074703 | 48 | 229 | 8.0 | 16.0 | 0.00 | 0.00 | 0.00 | 85 | 1013.4 |
| 20260509074605 | 48 | 228 | 6.0 | 16.0 | 0.00 | 0.00 | 0.00 | 85 | 1013.4 |
| 20260509074503 | 48 | 225 | 8.0 | 17.0 | 0.00 | 0.00 | 0.00 | 85 | 1013.3 |
| 20260509074403 | 48 | 223 | 10.0 | 17.0 | 0.00 | 0.00 | 0.00 | 85 | 1013.2 |
| 20260509074305 | 48 | 229 | 9.0 | 17.0 | 0.00 | 0.00 | 0.00 | 85 | 1013.3 |
| 20260509074203 | 48 | 229 | 8.0 | 17.0 | 0.00 | 0.00 | 0.00 | 85 | 1013.1 |
| 20260509074103 | 48 | 233 | 7.0 | 17.0 | 0.00 | 0.00 | 0.00 | 85 | 1013.3 |
| 20260509074003 | 48 | 237 | 11.0 | 17.0 | 0.00 | 0.00 | 0.00 | 85 | 1013.2 |
| 20260509073907 | 48 | 244 | 11.0 | 17.0 | 0.00 | 0.00 | 0.00 | 85 | 1013.1 |
| 20260509073803 | 48 | 250 | 8.0 | 11.0 | 0.00 | 0.00 | 0.00 | 85 | 1013.2 |
| 20260509073707 | 48 | 245 | 6.0 | 11.0 | 0.00 | 0.00 | 0.00 | 84 | 1013.2 |
| 20260509073504 | 48 | 256 | 7.0 | 11.0 | 0.00 | 0.00 | 0.00 | 84 | 1013.1 |
| 20260509073405 | 48 | 255 | 7.0 | 13.0 | 0.00 | 0.00 | 0.00 | 84 | 1013.0 |
| 20260509073305 | 48 | 252 | 4.0 | 13.0 | 0.00 | 0.00 | 0.00 | 84 | 1013.0 |
| 20260509073204 | 48 | 256 | 7.0 | 13.0 | 0.00 | 0.00 | 0.00 | 84 | 1013.0 |
| 20260509073105 | 48 | 253 | 7.0 | 13.0 | 0.00 | 0.00 | 0.00 | 84 | 1013.0 |
| 20260509073005 | 48 | 247 | 9.0 | 13.0 | 0.00 | 0.00 | 0.00 | 84 | 1012.9 |
| 20260509072904 | 48 | 253 | 8.0 | 14.0 | 0.00 | 0.00 | 0.00 | 84 | 1012.9 |
| 20260509072804 | 48 | 255 | 7.0 | 15.0 | 0.00 | 0.00 | 0.00 | 84 | 1013.1 |
| 20260509072705 | 48 | 255 | 5.0 | 15.0 | 0.00 | 0.00 | 0.00 | 84 | 1012.9 |
| 20260509072606 | 48 | 257 | 7.0 | 15.0 | 0.00 | 0.00 | 0.00 | 84 | 1012.9 |
| 20260509072504 | 48 | 261 | 8.0 | 15.0 | 0.00 | 0.00 | 0.00 | 84 | 1012.9 |
| 20260509072404 | 48 | 255 | 7.0 | 15.0 | 0.00 | 0.00 | 0.00 | 84 | 1012.7 |
| 20260509072306 | 48 | 252 | 8.0 | 15.0 | 0.00 | 0.00 | 0.00 | 84 | 1013.1 |
| 20260509072207 | 47 | 246 | 6.0 | 15.0 | 0.00 | 0.00 | 0.00 | 84 | 1013.0 |
| 20260509072117 | 47 | 246 | 9.0 | 15.0 | 0.00 | 0.00 | 0.00 | 84 | 1012.7 |
| 20260509072106 | 47 | 245 | 9.0 | 15.0 | 0.00 | 0.00 | 0.00 | 84 | 1012.7 |
| 20260509071803 | 47 | 233 | 6.0 | 14.0 | 0.00 | 0.00 | 0.00 | 84 | 1012.7 |
| 20260509071705 | 47 | 239 | 8.0 | 14.0 | 0.00 | 0.00 | 0.00 | 84 | 1012.8 |
| 20260509071603 | 47 | 241 | 8.0 | 14.0 | 0.00 | 0.00 | 0.00 | 84 | 1012.7 |
| 20260509071505 | 47 | 241 | 8.0 | 14.0 | 0.00 | 0.00 | 0.00 | 84 | 1012.7 |
| 20260509071404 | 47 | 247 | 6.0 | 14.0 | 0.00 | 0.00 | 0.00 | 84 | 1012.6 |
| 20260509071305 | 47 | 244 | 8.0 | 14.0 | 0.00 | 0.00 | 0.00 | 84 | 1012.8 |
| 20260509071205 | 47 | 242 | 7.0 | 16.0 | 0.00 | 0.00 | 0.00 | 84 | 1012.6 |
| 20260509071103 | 47 | 234 | 8.0 | 16.0 | 0.00 | 0.00 | 0.00 | 84 | 1012.6 |
| 20260509071016 | 47 | 234 | 9.0 | 16.0 | 0.00 | 0.00 | 0.00 | 84 | 1012.6 |
| 20260509071004 | 47 | 235 | 7.0 | 16.0 | 0.00 | 0.00 | 0.00 | 84 | 1012.7 |
| 20260509070904 | 47 | 237 | 8.0 | 16.0 | 0.00 | 0.00 | 0.00 | 84 | 1012.8 |
| 20260509070704 | 47 | 230 | 10.0 | 16.0 | 0.00 | 0.00 | 0.00 | 83 | 1012.5 |
| 20260509070603 | 47 | 234 | 10.0 | 15.0 | 0.00 | 0.00 | 0.00 | 83 | 1012.5 |
| 20260509070503 | 47 | 230 | 4.0 | 15.0 | 0.00 | 0.00 | 0.00 | 83 | 1012.7 |
| 20260509070403 | 47 | 219 | 5.0 | 15.0 | 0.00 | 0.00 | 0.00 | 83 | 1012.5 |
| 20260509070304 | 47 | 221 | 10.0 | 15.0 | 0.00 | 0.00 | 0.00 | 83 | 1012.4 |
| 20260509070203 | 47 | 225 | 8.0 | 15.0 | 0.00 | 0.00 | 0.00 | 83 | 1012.4 |
| 20260509070105 | 47 | 227 | 9.0 | 15.0 | 0.00 | 0.00 | 0.00 | 83 | 1012.5 |
| 20260509070004 | 47 | 229 | 7.0 | 13.0 | 0.00 | 0.00 | 0.00 | 83 | 1012.6 |
| 20260509065904 | 47 | 237 | 8.0 | 13.0 | 0.00 | 0.00 | 0.00 | 83 | 1012.3 |
| 20260509065803 | 47 | 235 | 8.0 | 16.0 | 0.00 | 0.00 | 0.00 | 83 | 1012.7 |
| 20260509065703 | 47 | 218 | 7.0 | 16.0 | 0.00 | 0.00 | 0.00 | 83 | 1012.5 |
| 20260509065605 | 47 | 211 | 8.0 | 16.0 | 0.00 | 0.00 | 0.00 | 83 | 1012.2 |
| 20260509065503 | 47 | 208 | 8.0 | 16.0 | 0.00 | 0.00 | 0.00 | 83 | 1012.4 |
| 20260509065403 | 47 | 209 | 6.0 | 17.0 | 0.00 | 0.00 | 0.00 | 83 | 1012.4 |
| 20260509065317 | 47 | 209 | 9.0 | 17.0 | 0.00 | 0.00 | 0.00 | 83 | 1012.4 |
| 20260509065203 | 47 | 224 | 10.0 | 17.0 | 0.00 | 0.00 | 0.00 | 83 | 1012.6 |
| 20260509065003 | 47 | 231 | 6.0 | 17.0 | 0.00 | 0.00 | 0.00 | 83 | 1012.2 |
| 20260509064905 | 47 | 231 | 9.0 | 17.0 | 0.00 | 0.00 | 0.00 | 83 | 1012.4 |
| 20260509064803 | 47 | 232 | 8.0 | 17.0 | 0.00 | 0.00 | 0.00 | 83 | 1012.6 |
| 20260509064704 | 47 | 231 | 7.0 | 17.0 | 0.00 | 0.00 | 0.00 | 83 | 1012.5 |
| 20260509064603 | 47 | 236 | 4.0 | 15.0 | 0.00 | 0.00 | 0.00 | 83 | 1012.4 |
| 20260509064403 | 47 | 252 | 7.0 | 15.0 | 0.00 | 0.00 | 0.00 | 83 | 1012.3 |
| 20260509064303 | 47 | 244 | 8.0 | 15.0 | 0.00 | 0.00 | 0.00 | 83 | 1012.3 |
| 20260509064217 | 47 | 246 | 4.0 | 15.0 | 0.00 | 0.00 | 0.00 | 82 | 1012.4 |
| 20260509064205 | 47 | 245 | 7.0 | 15.0 | 0.00 | 0.00 | 0.00 | 82 | 1012.2 |
| 20260509064104 | 47 | 235 | 8.0 | 15.0 | 0.00 | 0.00 | 0.00 | 82 | 1012.5 |
| 20260509063905 | 47 | 216 | 7.0 | 16.0 | 0.00 | 0.00 | 0.00 | 82 | 1012.6 |
| 20260509063804 | 47 | 226 | 4.0 | 16.0 | 0.00 | 0.00 | 0.00 | 82 | 1012.5 |
| 20260509063704 | 47 | 226 | 6.0 | 16.0 | 0.00 | 0.00 | 0.00 | 82 | 1012.5 |
| 20260509063613 | 47 | 227 | 6.0 | 16.0 | 0.00 | 0.00 | 0.00 | 82 | 1012.5 |
| 20260509063605 | 47 | 228 | 6.0 | 16.0 | 0.00 | 0.00 | 0.00 | 82 | 1012.5 |
| 20260509063503 | 47 | 227 | 6.0 | 22.0 | 0.00 | 0.00 | 0.00 | 82 | 1012.5 |
| 20260509063204 | 47 | 228 | 8.0 | 22.0 | 0.00 | 0.00 | 0.00 | 81 | 1012.5 |
| 20260509063105 | 47 | 232 | 7.0 | 22.0 | 0.00 | 0.00 | 0.00 | 81 | 1012.5 |
| 20260509063005 | 47 | 234 | 8.0 | 17.0 | 0.00 | 0.00 | 0.00 | 81 | 1012.5 |
| 20260509062919 | 47 | 242 | 9.0 | 17.0 | 0.00 | 0.00 | 0.00 | 81 | 1012.5 |
| 20260509062903 | 47 | 247 | 9.0 | 17.0 | 0.00 | 0.00 | 0.00 | 81 | 1012.5 |
| 20260509062803 | 47 | 256 | 10.0 | 17.0 | 0.00 | 0.00 | 0.00 | 81 | 1012.5 |
| 20260509062604 | 47 | 248 | 10.0 | 15.0 | 0.00 | 0.00 | 0.00 | 80 | 1012.5 |
| 20260509062504 | 47 | 249 | 6.0 | 14.0 | 0.00 | 0.00 | 0.00 | 80 | 1012.5 |
| 20260509062404 | 47 | 239 | 8.0 | 16.0 | 0.00 | 0.00 | 0.00 | 80 | 1012.5 |
| 20260509062306 | 47 | 233 | 8.0 | 17.0 | 0.00 | 0.00 | 0.00 | 80 | 1012.5 |
| 20260509062206 | 47 | 233 | 10.0 | 18.0 | 0.00 | 0.00 | 0.00 | 79 | 1012.5 |
| 20260509062104 | 47 | 234 | 5.0 | 18.0 | 0.00 | 0.00 | 0.00 | 79 | 1012.5 |
| 20260509062003 | 47 | 232 | 8.0 | 18.0 | 0.00 | 0.00 | 0.00 | 79 | 1012.5 |
| 20260509061904 | 47 | 236 | 8.0 | 18.0 | 0.00 | 0.00 | 0.00 | 79 | 1012.5 |
| 20260509061804 | 47 | 232 | 11.0 | 18.0 | 0.00 | 0.00 | 0.00 | 79 | 1012.3 |
| 20260509061606 | 47 | 236 | 8.0 | 18.0 | 0.00 | 0.00 | 0.00 | 78 | 1012.5 |
| 20260509061504 | 47 | 237 | 11.0 | 18.0 | 0.00 | 0.00 | 0.00 | 78 | 1012.3 |
| 20260509061403 | 47 | 241 | 11.0 | 17.0 | 0.00 | 0.00 | 0.00 | 77 | 1012.0 |
| 20260509061205 | 47 | 249 | 7.0 | 14.0 | 0.00 | 0.00 | 0.00 | 77 | 1012.3 |
| 20260509061103 | 47 | 242 | 5.0 | 17.0 | 0.00 | 0.00 | 0.00 | 77 | 1012.4 |
| 20260509060903 | 47 | 242 | 8.0 | 17.0 | 0.00 | 0.00 | 0.00 | 77 | 1012.2 |
| 20260509060803 | 47 | 224 | 8.0 | 18.0 | 0.00 | 0.00 | 0.00 | 76 | 1012.2 |
| 20260509060703 | 47 | 230 | 7.0 | 18.0 | 0.00 | 0.00 | 0.00 | 76 | 1012.6 |
| 20260509060603 | 47 | 232 | 11.0 | 18.0 | 0.00 | 0.00 | 0.00 | 76 | 1012.2 |
| 20260509060503 | 47 | 224 | 5.0 | 18.0 | 0.00 | 0.00 | 0.00 | 76 | 1012.2 |
| 20260509060404 | 47 | 224 | 8.0 | 18.0 | 0.00 | 0.00 | 0.00 | 76 | 1012.4 |
| 20260509060304 | 47 | 240 | 11.0 | 18.0 | 0.00 | 0.00 | 0.00 | 76 | 1012.4 |
| 20260509060203 | 47 | 243 | 4.0 | 16.0 | 0.00 | 0.00 | 0.00 | 75 | 1012.3 |
| 20260509060007 | 47 | 232 | 6.0 | 16.0 | 0.00 | 0.00 | 0.00 | 75 | 1012.3 |
| 20260509055905 | 47 | 232 | 6.0 | 16.0 | 0.00 | 0.00 | 0.00 | 75 | 1012.2 |
| 20260509055703 | 47 | 224 | 6.0 | 16.0 | 0.00 | 0.00 | 0.00 | 75 | 1012.1 |
| 20260509055604 | 47 | 231 | 7.0 | 14.0 | 0.00 | 0.00 | 0.00 | 75 | 1012.3 |
| 20260509055503 | 47 | 234 | 7.0 | 14.0 | 0.00 | 0.00 | 0.00 | 75 | 1012.4 |
| 20260509055403 | 47 | 236 | 7.0 | 14.0 | 0.00 | 0.00 | 0.00 | 75 | 1012.1 |
| 20260509055306 | 47 | 233 | 7.0 | 16.0 | 0.00 | 0.00 | 0.00 | 74 | 1012.5 |
| 20260509055204 | 47 | 234 | 8.0 | 16.0 | 0.00 | 0.00 | 0.00 | 74 | 1012.3 |
| 20260509055105 | 47 | 235 | 8.0 | 16.0 | 0.00 | 0.00 | 0.00 | 74 | 1012.4 |
| 20260509055004 | 47 | 239 | 9.0 | 16.0 | 0.00 | 0.00 | 0.00 | 74 | 1012.3 |
| 20260509054904 | 47 | 240 | 8.0 | 16.0 | 0.00 | 0.00 | 0.00 | 74 | 1012.4 |
| 20260509054804 | 47 | 244 | 8.0 | 16.0 | 0.00 | 0.00 | 0.00 | 74 | 1012.3 |
| 20260509054704 | 47 | 245 | 7.0 | 16.0 | 0.00 | 0.00 | 0.00 | 74 | 1012.0 |
| 20260509054605 | 47 | 244 | 6.0 | 16.0 | 0.00 | 0.00 | 0.00 | 73 | 1012.3 |
| 20260509054517 | 47 | 244 | 7.0 | 16.0 | 0.00 | 0.00 | 0.00 | 73 | 1012.2 |
| 20260509054504 | 47 | 243 | 7.0 | 16.0 | 0.00 | 0.00 | 0.00 | 73 | 1012.2 |
| 20260509054403 | 47 | 252 | 8.0 | 16.0 | 0.00 | 0.00 | 0.00 | 73 | 1012.2 |
| 20260509054217 | 47 | 269 | 10.0 | 16.0 | 0.00 | 0.00 | 0.00 | 73 | 1012.4 |
| 20260509054207 | 47 | 269 | 7.0 | 16.0 | 0.00 | 0.00 | 0.00 | 73 | 1012.0 |
| 20260509054104 | 47 | 270 | 6.0 | 13.0 | 0.00 | 0.00 | 0.00 | 73 | 1012.1 |
| 20260509053904 | 47 | 265 | 8.0 | 13.0 | 0.00 | 0.00 | 0.00 | 73 | 1012.3 |
| 20260509053805 | 47 | 254 | 9.0 | 13.0 | 0.00 | 0.00 | 0.00 | 72 | 1012.3 |
| 20260509053715 | 47 | 245 | 8.0 | 15.0 | 0.00 | 0.00 | 0.00 | 72 | 1012.1 |
| 20260509053705 | 47 | 243 | 8.0 | 15.0 | 0.00 | 0.00 | 0.00 | 72 | 1012.1 |
| 20260509053606 | 47 | 238 | 8.0 | 16.0 | 0.00 | 0.00 | 0.00 | 72 | 1012.2 |
| 20260509053517 | 47 | 240 | 8.0 | 17.0 | 0.00 | 0.00 | 0.00 | 72 | 1012.2 |
| 20260509053403 | 47 | 235 | 7.0 | 17.0 | 0.00 | 0.00 | 0.00 | 72 | 1012.3 |
| 20260509053204 | 47 | 235 | 8.0 | 17.0 | 0.00 | 0.00 | 0.00 | 72 | 1012.1 |
| 20260509053103 | 47 | 242 | 8.0 | 17.0 | 0.00 | 0.00 | 0.00 | 71 | 1012.2 |
| 20260509053005 | 47 | 242 | 10.0 | 14.0 | 0.00 | 0.00 | 0.00 | 71 | 1012.1 |
| 20260509052914 | 47 | 244 | 8.0 | 14.0 | 0.00 | 0.00 | 0.00 | 71 | 1012.4 |
| 20260509052904 | 47 | 242 | 8.0 | 14.0 | 0.00 | 0.00 | 0.00 | 71 | 1012.4 |
| 20260509052812 | 47 | 236 | 7.0 | 14.0 | 0.00 | 0.00 | 0.00 | 71 | 1012.2 |
| 20260509052604 | 47 | 230 | 4.0 | 8.0 | 0.00 | 0.00 | 0.00 | 71 | 1012.2 |
| 20260509052505 | 47 | 226 | 4.0 | 7.0 | 0.00 | 0.00 | 0.00 | 71 | 1011.9 |
| 20260509052417 | 47 | 240 | 3.0 | 11.0 | 0.00 | 0.00 | 0.00 | 71 | 1012.1 |
| 20260509052307 | 47 | 253 | 3.0 | 11.0 | 0.00 | 0.00 | 0.00 | 71 | 1012.1 |
| 20260509052118 | 47 | 256 | 4.0 | 14.0 | 0.00 | 0.00 | 0.00 | 71 | 1012.2 |
| 20260509052106 | 47 | 254 | 4.0 | 14.0 | 0.00 | 0.00 | 0.00 | 71 | 1012.2 |
| 20260509052003 | 47 | 252 | 4.0 | 14.0 | 0.00 | 0.00 | 0.00 | 71 | 1011.7 |
| 20260509051803 | 47 | 246 | 6.0 | 15.0 | 0.00 | 0.00 | 0.00 | 71 | 1012.1 |
| 20260509051705 | 47 | 249 | 7.0 | 15.0 | 0.00 | 0.00 | 0.00 | 70 | 1012.0 |
| 20260509051605 | 47 | 251 | 8.0 | 16.0 | 0.00 | 0.00 | 0.00 | 70 | 1012.2 |
| 20260509051507 | 47 | 254 | 7.0 | 16.0 | 0.00 | 0.00 | 0.00 | 70 | 1012.0 |
| 20260509051405 | 47 | 252 | 8.0 | 16.0 | 0.00 | 0.00 | 0.00 | 70 | 1012.0 |
| 20260509051317 | 47 | 243 | 6.0 | 16.0 | 0.00 | 0.00 | 0.00 | 70 | 1012.0 |
| 20260509051303 | 47 | 244 | 6.0 | 16.0 | 0.00 | 0.00 | 0.00 | 70 | 1012.0 |
| 20260509051203 | 47 | 243 | 8.0 | 16.0 | 0.00 | 0.00 | 0.00 | 70 | 1012.0 |
| 20260509051005 | 47 | 234 | 9.0 | 15.0 | 0.00 | 0.00 | 0.00 | 70 | 1012.0 |
| 20260509050903 | 47 | 233 | 8.0 | 13.0 | 0.00 | 0.00 | 0.00 | 70 | 1012.0 |
| 20260509050805 | 47 | 236 | 5.0 | 13.0 | 0.00 | 0.00 | 0.00 | 70 | 1012.1 |
| 20260509050703 | 47 | 228 | 5.0 | 13.0 | 0.00 | 0.00 | 0.00 | 70 | 1012.1 |
| 20260509050605 | 47 | 236 | 6.0 | 17.0 | 0.00 | 0.00 | 0.00 | 70 | 1012.1 |
| 20260509050503 | 47 | 239 | 7.0 | 17.0 | 0.00 | 0.00 | 0.00 | 70 | 1012.1 |
| 20260509050414 | 47 | 237 | 7.0 | 17.0 | 0.00 | 0.00 | 0.00 | 70 | 1011.8 |
| 20260509050405 | 47 | 240 | 7.0 | 17.0 | 0.00 | 0.00 | 0.00 | 70 | 1011.8 |
| 20260509050303 | 47 | 239 | 5.0 | 20.0 | 0.00 | 0.00 | 0.00 | 70 | 1011.8 |
| 20260509050004 | 48 | 223 | 9.0 | 20.0 | 0.00 | 0.00 | 0.00 | 69 | 1011.9 |
| 20260509045903 | 47 | 212 | 10.0 | 20.0 | 0.00 | 0.00 | 0.00 | 69 | 1012.0 |
| 20260509045803 | 48 | 212 | 9.0 | 18.0 | 0.00 | 0.00 | 0.00 | 69 | 1011.9 |
| 20260509045703 | 47 | 205 | 11.0 | 18.0 | 0.00 | 0.00 | 0.00 | 69 | 1012.1 |
| 20260509045603 | 47 | 216 | 8.0 | 18.0 | 0.00 | 0.00 | 0.00 | 70 | 1011.9 |
| 20260509045504 | 48 | 229 | 10.0 | 18.0 | 0.00 | 0.00 | 0.00 | 69 | 1011.9 |
| 20260509045404 | 47 | 245 | 4.0 | 18.0 | 0.00 | 0.00 | 0.00 | 69 | 1011.8 |
| 20260509045319 | 48 | 242 | 9.0 | 18.0 | 0.00 | 0.00 | 0.00 | 69 | 1011.6 |
| 20260509045206 | 47 | 244 | 9.0 | 18.0 | 0.00 | 0.00 | 0.00 | 69 | 1011.8 |
| 20260509045116 | 48 | 240 | 9.0 | 15.0 | 0.00 | 0.00 | 0.00 | 69 | 1011.9 |
| 20260509045004 | 48 | 233 | 8.0 | 13.0 | 0.00 | 0.00 | 0.00 | 69 | 1011.9 |
| 20260509044805 | 48 | 247 | 7.0 | 13.0 | 0.00 | 0.00 | 0.00 | 69 | 1012.0 |
| 20260509044704 | 48 | 250 | 8.0 | 14.0 | 0.00 | 0.00 | 0.00 | 69 | 1011.8 |
| 20260509044605 | 48 | 247 | 8.0 | 14.0 | 0.00 | 0.00 | 0.00 | 69 | 1011.6 |
| 20260509044504 | 48 | 251 | 7.0 | 15.0 | 0.00 | 0.00 | 0.00 | 69 | 1011.7 |
| 20260509044403 | 48 | 261 | 7.0 | 15.0 | 0.00 | 0.00 | 0.00 | 69 | 1011.7 |
| 20260509044205 | 48 | 234 | 7.0 | 15.0 | 0.00 | 0.00 | 0.00 | 69 | 1011.9 |
| 20260509044104 | 48 | 228 | 8.0 | 15.0 | 0.00 | 0.00 | 0.00 | 69 | 1011.8 |
| 20260509043904 | 48 | 226 | 6.0 | 14.0 | 0.00 | 0.00 | 0.00 | 69 | 1011.9 |
| 20260509043805 | 48 | 236 | 7.0 | 16.0 | 0.00 | 0.00 | 0.00 | 69 | 1011.9 |
| 20260509043707 | 48 | 249 | 10.0 | 16.0 | 0.00 | 0.00 | 0.00 | 69 | 1011.9 |
| 20260509043605 | 48 | 267 | 5.0 | 16.0 | 0.00 | 0.00 | 0.00 | 69 | 1011.7 |
| 20260509043505 | 48 | 263 | 8.0 | 16.0 | 0.00 | 0.00 | 0.00 | 69 | 1011.8 |
| 20260509043403 | 48 | 256 | 8.0 | 16.0 | 0.00 | 0.00 | 0.00 | 69 | 1011.7 |
| 20260509043305 | 48 | 236 | 5.0 | 14.0 | 0.00 | 0.00 | 0.00 | 69 | 1011.7 |
| 20260509043204 | 48 | 226 | 7.0 | 15.0 | 0.00 | 0.00 | 0.00 | 69 | 1011.9 |
| 20260509043104 | 48 | 223 | 6.0 | 15.0 | 0.00 | 0.00 | 0.00 | 68 | 1011.8 |
| 20260509043004 | 48 | 228 | 9.0 | 15.0 | 0.00 | 0.00 | 0.00 | 68 | 1011.9 |
| 20260509042903 | 48 | 234 | 8.0 | 17.0 | 0.00 | 0.00 | 0.00 | 68 | 1011.8 |
| 20260509042804 | 48 | 242 | 8.0 | 17.0 | 0.00 | 0.00 | 0.00 | 68 | 1011.9 |
| 20260509042704 | 48 | 245 | 8.0 | 17.0 | 0.00 | 0.00 | 0.00 | 69 | 1011.8 |
| 20260509042605 | 48 | 243 | 5.0 | 17.0 | 0.00 | 0.00 | 0.00 | 69 | 1011.9 |
| 20260509042504 | 48 | 240 | 7.0 | 17.0 | 0.00 | 0.00 | 0.00 | 69 | 1011.7 |
| 20260509042404 | 48 | 237 | 9.0 | 17.0 | 0.00 | 0.00 | 0.00 | 68 | 1011.7 |
| 20260509042306 | 48 | 228 | 9.0 | 18.0 | 0.00 | 0.00 | 0.00 | 69 | 1011.8 |
| 20260509042205 | 48 | 227 | 9.0 | 18.0 | 0.00 | 0.00 | 0.00 | 69 | 1011.7 |
| 20260509042103 | 48 | 231 | 7.0 | 18.0 | 0.00 | 0.00 | 0.00 | 68 | 1011.7 |
| 20260509042005 | 48 | 232 | 9.0 | 18.0 | 0.00 | 0.00 | 0.00 | 68 | 1011.5 |
| 20260509041904 | 48 | 234 | 7.0 | 18.0 | 0.00 | 0.00 | 0.00 | 68 | 1011.7 |
| 20260509041705 | 48 | 239 | 7.0 | 16.0 | 0.00 | 0.00 | 0.00 | 68 | 1011.7 |
| 20260509041603 | 48 | 236 | 8.0 | 16.0 | 0.00 | 0.00 | 0.00 | 68 | 1011.6 |
| 20260509041503 | 48 | 232 | 8.0 | 16.0 | 0.00 | 0.00 | 0.00 | 68 | 1011.6 |
| 20260509041404 | 48 | 225 | 9.0 | 16.0 | 0.00 | 0.00 | 0.00 | 68 | 1011.6 |
| 20260509041304 | 48 | 225 | 9.0 | 16.0 | 0.00 | 0.00 | 0.00 | 68 | 1011.6 |
| 20260509041205 | 48 | 225 | 6.0 | 13.0 | 0.00 | 0.00 | 0.00 | 68 | 1011.6 |
| 20260509041004 | 48 | 249 | 8.0 | 16.0 | 0.00 | 0.00 | 0.00 | 68 | 1011.6 |
| 20260509040903 | 48 | 251 | 8.0 | 18.0 | 0.00 | 0.00 | 0.00 | 68 | 1011.6 |
| 20260509040704 | 48 | 249 | 5.0 | 18.0 | 0.00 | 0.00 | 0.00 | 68 | 1011.5 |
| 20260509040616 | 48 | 247 | 10.0 | 18.0 | 0.00 | 0.00 | 0.00 | 68 | 1011.5 |
| 20260509040605 | 48 | 244 | 8.0 | 18.0 | 0.00 | 0.00 | 0.00 | 68 | 1011.5 |
| 20260509040504 | 48 | 242 | 9.0 | 18.0 | 0.00 | 0.00 | 0.00 | 68 | 1011.6 |
| 20260509040303 | 48 | 228 | 9.0 | 18.0 | 0.00 | 0.00 | 0.00 | 68 | 1011.5 |
| 20260509040204 | 48 | 233 | 8.0 | 17.0 | 0.00 | 0.00 | 0.00 | 67 | 1011.5 |
| 20260509040105 | 48 | 238 | 11.0 | 17.0 | 0.00 | 0.00 | 0.00 | 67 | 1011.4 |
| 20260509040004 | 48 | 236 | 9.0 | 17.0 | 0.00 | 0.00 | 0.00 | 67 | 1011.3 |
| 20260509035905 | 48 | 236 | 7.0 | 17.0 | 0.00 | 0.00 | 0.00 | 67 | 1011.3 |
| 20260509035815 | 48 | 239 | 7.0 | 17.0 | 0.00 | 0.00 | 0.00 | 67 | 1011.3 |
| 20260509035804 | 48 | 238 | 8.0 | 17.0 | 0.00 | 0.00 | 0.00 | 67 | 1011.4 |
| 20260509035617 | 48 | 233 | 10.0 | 15.0 | 0.00 | 0.00 | 0.00 | 67 | 1011.3 |
| 20260509035505 | 48 | 236 | 7.0 | 16.0 | 0.00 | 0.00 | 0.00 | 67 | 1011.2 |
| 20260509035306 | 48 | 235 | 9.0 | 20.0 | 0.00 | 0.00 | 0.00 | 67 | 1011.2 |
| 20260509035204 | 48 | 237 | 11.0 | 20.0 | 0.00 | 0.00 | 0.00 | 67 | 1011.1 |
| 20260509035105 | 48 | 231 | 9.0 | 20.0 | 0.00 | 0.00 | 0.00 | 67 | 1011.2 |
| 20260509034804 | 48 | 241 | 8.0 | 16.0 | 0.00 | 0.00 | 0.00 | 67 | 1011.1 |
| 20260509034705 | 48 | 237 | 5.0 | 16.0 | 0.00 | 0.00 | 0.00 | 67 | 1010.9 |
| 20260509034618 | 48 | 241 | 8.0 | 16.0 | 0.00 | 0.00 | 0.00 | 67 | 1011.6 |
| 20260509034604 | 48 | 244 | 11.0 | 18.0 | 0.00 | 0.00 | 0.00 | 67 | 1011.2 |
| 20260509034503 | 48 | 238 | 10.0 | 18.0 | 0.00 | 0.00 | 0.00 | 67 | 1011.0 |
| 20260509034303 | 48 | 227 | 10.0 | 18.0 | 0.00 | 0.00 | 0.00 | 67 | 1011.3 |
| 20260509034203 | 49 | 226 | 8.0 | 18.0 | 0.00 | 0.00 | 0.00 | 67 | 1011.0 |
| 20260509034008 | 49 | 224 | 9.0 | 16.0 | 0.00 | 0.00 | 0.00 | 67 | 1011.0 |
| 20260509033903 | 49 | 231 | 10.0 | 16.0 | 0.00 | 0.00 | 0.00 | 67 | 1011.0 |
| 20260509033804 | 49 | 231 | 11.0 | 16.0 | 0.00 | 0.00 | 0.00 | 67 | 1011.1 |
| 20260509033715 | 49 | 233 | 8.0 | 15.0 | 0.00 | 0.00 | 0.00 | 67 | 1011.1 |
| 20260509033704 | 49 | 236 | 8.0 | 15.0 | 0.00 | 0.00 | 0.00 | 67 | 1011.1 |
| 20260509033603 | 49 | 250 | 10.0 | 15.0 | 0.00 | 0.00 | 0.00 | 67 | 1011.1 |
| 20260509033416 | 49 | 244 | 7.0 | 15.0 | 0.00 | 0.00 | 0.00 | 67 | 1011.1 |
| 20260509033403 | 49 | 243 | 9.0 | 15.0 | 0.00 | 0.00 | 0.00 | 67 | 1010.8 |
| 20260509033315 | 49 | 245 | 9.0 | 16.0 | 0.00 | 0.00 | 0.00 | 67 | 1010.8 |
| 20260509033303 | 49 | 246 | 9.0 | 16.0 | 0.00 | 0.00 | 0.00 | 67 | 1010.8 |
| 20260509033117 | 49 | 242 | 7.0 | 16.0 | 0.00 | 0.00 | 0.00 | 66 | 1010.7 |
| 20260509033016 | 49 | 245 | 8.0 | 16.0 | 0.00 | 0.00 | 0.00 | 66 | 1010.9 |
| 20260509033004 | 49 | 246 | 9.0 | 16.0 | 0.00 | 0.00 | 0.00 | 67 | 1011.0 |
| 20260509032703 | 49 | 263 | 6.0 | 13.0 | 0.00 | 0.00 | 0.00 | 67 | 1010.8 |
| 20260509032604 | 49 | 260 | 7.0 | 16.0 | 0.00 | 0.00 | 0.00 | 66 | 1011.1 |
| 20260509032404 | 49 | 256 | 8.0 | 16.0 | 0.00 | 0.00 | 0.00 | 66 | 1010.9 |
| 20260509032306 | 49 | 252 | 7.0 | 23.0 | 0.00 | 0.00 | 0.00 | 66 | 1010.8 |
| 20260509032203 | 49 | 243 | 10.0 | 23.0 | 0.00 | 0.00 | 0.00 | 66 | 1010.9 |
| 20260509032005 | 49 | 240 | 6.0 | 23.0 | 0.00 | 0.00 | 0.00 | 66 | 1010.8 |
| 20260509031904 | 49 | 236 | 8.0 | 23.0 | 0.00 | 0.00 | 0.00 | 66 | 1010.9 |
| 20260509031804 | 49 | 230 | 11.0 | 18.0 | 0.00 | 0.00 | 0.00 | 67 | 1010.8 |
| 20260509031705 | 49 | 232 | 8.0 | 14.0 | 0.00 | 0.00 | 0.00 | 67 | 1010.8 |
| 20260509031608 | 49 | 231 | 4.0 | 14.0 | 0.00 | 0.00 | 0.00 | 68 | 1010.9 |
| 20260509031503 | 49 | 235 | 4.0 | 14.0 | 0.00 | 0.00 | 0.00 | 68 | 1010.8 |
| 20260509031418 | 49 | 238 | 5.0 | 14.0 | 0.00 | 0.00 | 0.00 | 68 | 1010.7 |
| 20260509031405 | 49 | 238 | 6.0 | 14.0 | 0.00 | 0.00 | 0.00 | 68 | 1011.0 |
| 20260509031304 | 49 | 235 | 7.0 | 14.0 | 0.00 | 0.00 | 0.00 | 68 | 1010.8 |
| 20260509031104 | 49 | 227 | 5.0 | 15.0 | 0.00 | 0.00 | 0.00 | 68 | 1010.5 |
| 20260509031004 | 49 | 233 | 8.0 | 15.0 | 0.00 | 0.00 | 0.00 | 68 | 1010.7 |
| 20260509030803 | 49 | 244 | 8.0 | 15.0 | 0.00 | 0.00 | 0.00 | 67 | 1010.8 |
| 20260509030704 | 49 | 250 | 9.0 | 15.0 | 0.00 | 0.00 | 0.00 | 68 | 1010.6 |
| 20260509030604 | 49 | 243 | 9.0 | 17.0 | 0.00 | 0.00 | 0.00 | 68 | 1010.7 |
| 20260509030515 | 49 | 232 | 8.0 | 17.0 | 0.00 | 0.00 | 0.00 | 68 | 1010.5 |
| 20260509030503 | 49 | 231 | 8.0 | 17.0 | 0.00 | 0.00 | 0.00 | 68 | 1010.5 |
| 20260509030404 | 49 | 230 | 8.0 | 17.0 | 0.00 | 0.00 | 0.00 | 68 | 1010.6 |
| 20260509030216 | 49 | 229 | 8.0 | 17.0 | 0.00 | 0.00 | 0.00 | 68 | 1010.7 |
| 20260509030203 | 49 | 229 | 9.0 | 17.0 | 0.00 | 0.00 | 0.00 | 68 | 1010.6 |
| 20260509030105 | 49 | 240 | 9.0 | 16.0 | 0.00 | 0.00 | 0.00 | 68 | 1010.6 |
| 20260509030013 | 49 | 247 | 9.0 | 16.0 | 0.00 | 0.00 | 0.00 | 68 | 1010.8 |
| 20260509025903 | 49 | 246 | 9.0 | 16.0 | 0.00 | 0.00 | 0.00 | 68 | 1010.6 |
| 20260509025705 | 49 | 244 | 7.0 | 11.0 | 0.00 | 0.00 | 0.00 | 68 | 1010.8 |
| 20260509025605 | 49 | 239 | 7.0 | 11.0 | 0.00 | 0.00 | 0.00 | 68 | 1010.5 |
| 20260509025504 | 49 | 240 | 7.0 | 11.0 | 0.00 | 0.00 | 0.00 | 68 | 1010.8 |
| 20260509025415 | 49 | 242 | 5.0 | 13.0 | 0.00 | 0.00 | 0.00 | 68 | 1010.9 |
| 20260509025404 | 49 | 241 | 4.0 | 13.0 | 0.00 | 0.00 | 0.00 | 68 | 1010.8 |
| 20260509025306 | 49 | 243 | 5.0 | 13.0 | 0.00 | 0.00 | 0.00 | 68 | 1010.7 |
| 20260509025104 | 49 | 238 | 7.0 | 13.0 | 0.00 | 0.00 | 0.00 | 68 | 1010.7 |
| 20260509025009 | 49 | 238 | 8.0 | 13.0 | 0.00 | 0.00 | 0.00 | 67 | 1010.6 |
| 20260509024905 | 49 | 236 | 4.0 | 9.0 | 0.00 | 0.00 | 0.00 | 67 | 1010.5 |
| 20260509024805 | 49 | 243 | 4.0 | 9.0 | 0.00 | 0.00 | 0.00 | 67 | 1010.6 |
| 20260509024705 | 49 | 250 | 5.0 | 9.0 | 0.00 | 0.00 | 0.00 | 67 | 1010.7 |
| 20260509024603 | 49 | 251 | 5.0 | 11.0 | 0.00 | 0.00 | 0.00 | 67 | 1010.4 |
| 20260509024505 | 49 | 251 | 4.0 | 11.0 | 0.00 | 0.00 | 0.00 | 66 | 1010.8 |
| 20260509024403 | 49 | 253 | 4.0 | 11.0 | 0.00 | 0.00 | 0.00 | 66 | 1010.4 |
| 20260509024303 | 50 | 251 | 6.0 | 11.0 | 0.00 | 0.00 | 0.00 | 66 | 1010.7 |
| 20260509024207 | 50 | 247 | 6.0 | 11.0 | 0.00 | 0.00 | 0.00 | 66 | 1010.4 |
| 20260509024103 | 50 | 247 | 5.0 | 15.0 | 0.00 | 0.00 | 0.00 | 66 | 1010.4 |
| 20260509024003 | 50 | 247 | 4.0 | 15.0 | 0.00 | 0.00 | 0.00 | 65 | 1010.4 |
| 20260509023919 | 50 | 245 | 4.0 | 15.0 | 0.00 | 0.00 | 0.00 | 65 | 1010.4 |
| 20260509023903 | 50 | 244 | 4.0 | 15.0 | 0.00 | 0.00 | 0.00 | 65 | 1010.4 |
| 20260509023803 | 50 | 239 | 6.0 | 15.0 | 0.00 | 0.00 | 0.00 | 65 | 1010.5 |
| 20260509023603 | 50 | 231 | 9.0 | 15.0 | 0.00 | 0.00 | 0.00 | 64 | 1010.4 |
| 20260509023507 | 50 | 227 | 8.0 | 13.0 | 0.00 | 0.00 | 0.00 | 64 | 1010.4 |
| 20260509023403 | 50 | 219 | 7.0 | 13.0 | 0.00 | 0.00 | 0.00 | 64 | 1010.1 |
| 20260509023303 | 50 | 216 | 5.0 | 13.0 | 0.00 | 0.00 | 0.00 | 64 | 1010.4 |
| 20260509023205 | 50 | 219 | 5.0 | 13.0 | 0.00 | 0.00 | 0.00 | 64 | 1010.4 |
| 20260509023105 | 50 | 219 | 4.0 | 13.0 | 0.00 | 0.00 | 0.00 | 64 | 1010.3 |
| 20260509023016 | 50 | 220 | 5.0 | 13.0 | 0.00 | 0.00 | 0.00 | 64 | 1010.2 |
| 20260509023004 | 50 | 221 | 9.0 | 13.0 | 0.00 | 0.00 | 0.00 | 64 | 1010.2 |
| 20260509022904 | 50 | 231 | 7.0 | 13.0 | 0.00 | 0.00 | 0.00 | 64 | 1010.2 |
| 20260509022813 | 50 | 237 | 5.0 | 13.0 | 0.00 | 0.00 | 0.00 | 64 | 1010.0 |
| 20260509022707 | 50 | 239 | 6.0 | 13.0 | 0.00 | 0.00 | 0.00 | 64 | 1010.3 |
| 20260509022616 | 50 | 242 | 7.0 | 13.0 | 0.00 | 0.00 | 0.00 | 63 | 1010.4 |
| 20260509022504 | 50 | 246 | 5.0 | 13.0 | 0.00 | 0.00 | 0.00 | 63 | 1010.2 |
| 20260509022306 | 50 | 247 | 8.0 | 13.0 | 0.00 | 0.00 | 0.00 | 63 | 1010.2 |
| 20260509022206 | 50 | 250 | 6.0 | 11.0 | 0.00 | 0.00 | 0.00 | 63 | 1010.1 |
| 20260509022104 | 50 | 253 | 5.0 | 11.0 | 0.00 | 0.00 | 0.00 | 63 | 1010.1 |
| 20260509022005 | 50 | 254 | 6.0 | 11.0 | 0.00 | 0.00 | 0.00 | 63 | 1010.1 |
| 20260509021903 | 50 | 248 | 8.0 | 11.0 | 0.00 | 0.00 | 0.00 | 63 | 1010.0 |
| 20260509021804 | 50 | 247 | 5.0 | 11.0 | 0.00 | 0.00 | 0.00 | 63 | 1010.2 |
| 20260509021705 | 50 | 233 | 5.0 | 16.0 | 0.00 | 0.00 | 0.00 | 63 | 1010.1 |
| 20260509021617 | 50 | 229 | 5.0 | 16.0 | 0.00 | 0.00 | 0.00 | 63 | 1009.9 |
| 20260509021604 | 50 | 227 | 5.0 | 16.0 | 0.00 | 0.00 | 0.00 | 63 | 1009.9 |
| 20260509021504 | 50 | 224 | 6.0 | 16.0 | 0.00 | 0.00 | 0.00 | 62 | 1010.0 |
| 20260509021216 | 50 | 235 | 8.0 | 16.0 | 0.00 | 0.00 | 0.00 | 62 | 1009.8 |
| 20260509021204 | 50 | 237 | 8.0 | 16.0 | 0.00 | 0.00 | 0.00 | 62 | 1009.8 |
| 20260509021103 | 50 | 238 | 8.0 | 16.0 | 0.00 | 0.00 | 0.00 | 62 | 1009.8 |
| 20260509020904 | 50 | 236 | 5.0 | 11.0 | 0.00 | 0.00 | 0.00 | 63 | 1009.6 |
| 20260509020806 | 50 | 235 | 4.0 | 11.0 | 0.00 | 0.00 | 0.00 | 63 | 1009.8 |
| 20260509020704 | 50 | 229 | 6.0 | 11.0 | 0.00 | 0.00 | 0.00 | 63 | 1009.9 |
| 20260509020604 | 50 | 233 | 5.0 | 13.0 | 0.00 | 0.00 | 0.00 | 62 | 1009.7 |
| 20260509020504 | 50 | 239 | 4.0 | 13.0 | 0.00 | 0.00 | 0.00 | 62 | 1009.5 |
| 20260509020404 | 50 | 236 | 4.0 | 13.0 | 0.00 | 0.00 | 0.00 | 62 | 1009.6 |
| 20260509020204 | 50 | 236 | 5.0 | 14.0 | 0.00 | 0.00 | 0.00 | 62 | 1009.6 |
| 20260509020104 | 50 | 229 | 7.0 | 15.0 | 0.00 | 0.00 | 0.00 | 62 | 1009.7 |
| 20260509020004 | 50 | 232 | 5.0 | 15.0 | 0.00 | 0.00 | 0.00 | 62 | 1009.8 |
| 20260509015903 | 50 | 235 | 7.0 | 15.0 | 0.00 | 0.00 | 0.00 | 62 | 1009.6 |
| 20260509015805 | 50 | 231 | 5.0 | 15.0 | 0.00 | 0.00 | 0.00 | 61 | 1009.9 |
| 20260509015715 | 51 | 230 | 8.0 | 15.0 | 0.00 | 0.00 | 0.00 | 61 | 1009.8 |
| 20260509015703 | 51 | 232 | 8.0 | 15.0 | 0.00 | 0.00 | 0.00 | 61 | 1009.8 |
| 20260509015605 | 50 | 234 | 8.0 | 15.0 | 0.00 | 0.00 | 0.00 | 61 | 1009.8 |
| 20260509015404 | 51 | 230 | 8.0 | 14.0 | 0.00 | 0.00 | 0.00 | 61 | 1009.7 |
| 20260509015306 | 51 | 236 | 4.0 | 14.0 | 0.00 | 0.00 | 0.00 | 60 | 1009.8 |
| 20260509015203 | 51 | 244 | 8.0 | 14.0 | 0.00 | 0.00 | 0.00 | 60 | 1010.0 |
| 20260509015104 | 51 | 238 | 6.0 | 13.0 | 0.00 | 0.00 | 0.00 | 60 | 1009.7 |
| 20260509015003 | 51 | 239 | 5.0 | 13.0 | 0.00 | 0.00 | 0.00 | 60 | 1009.8 |
| 20260509014803 | 51 | 236 | 8.0 | 14.0 | 0.00 | 0.00 | 0.00 | 60 | 1009.7 |
| 20260509014706 | 50 | 232 | 7.0 | 14.0 | 0.00 | 0.00 | 0.00 | 60 | 1009.6 |
| 20260509014605 | 51 | 248 | 8.0 | 14.0 | 0.00 | 0.00 | 0.00 | 59 | 1009.7 |
| 20260509014503 | 51 | 248 | 6.0 | 14.0 | 0.00 | 0.00 | 0.00 | 59 | 1009.7 |
| 20260509014403 | 51 | 244 | 6.0 | 15.0 | 0.00 | 0.00 | 0.00 | 59 | 1009.5 |
| 20260509014303 | 51 | 244 | 9.0 | 15.0 | 0.00 | 0.00 | 0.00 | 59 | 1009.6 |
| 20260509014205 | 50 | 252 | 8.0 | 15.0 | 0.00 | 0.00 | 0.00 | 58 | 1009.5 |
| 20260509014108 | 50 | 244 | 6.0 | 15.0 | 0.00 | 0.00 | 0.00 | 58 | 1009.4 |
| 20260509014004 | 50 | 238 | 6.0 | 15.0 | 0.00 | 0.00 | 0.00 | 58 | 1009.5 |
| 20260509013904 | 50 | 239 | 8.0 | 15.0 | 0.00 | 0.00 | 0.00 | 58 | 1009.5 |
| 20260509013804 | 50 | 236 | 7.0 | 11.0 | 0.00 | 0.00 | 0.00 | 57 | 1009.5 |
| 20260509013717 | 50 | 228 | 6.0 | 11.0 | 0.00 | 0.00 | 0.00 | 57 | 1009.5 |
| 20260509013704 | 50 | 227 | 6.0 | 11.0 | 0.00 | 0.00 | 0.00 | 57 | 1009.5 |
| 20260509013607 | 50 | 227 | 6.0 | 14.0 | 0.00 | 0.00 | 0.00 | 57 | 1009.5 |
| 20260509013514 | 50 | 233 | 6.0 | 14.0 | 0.00 | 0.00 | 0.00 | 56 | 1009.4 |
| 20260509013204 | 50 | 240 | 5.0 | 14.0 | 0.00 | 0.00 | 0.00 | 55 | 1009.4 |
| 20260509013106 | 50 | 238 | 6.0 | 14.0 | 0.00 | 0.00 | 0.00 | 55 | 1009.5 |
| 20260509013004 | 50 | 233 | 4.0 | 9.0 | 0.00 | 0.00 | 0.00 | 55 | 1009.5 |
| 20260509012915 | 50 | 237 | 8.0 | 9.0 | 0.00 | 0.00 | 0.00 | 54 | 1009.4 |
| 20260509012904 | 50 | 238 | 8.0 | 9.0 | 0.00 | 0.00 | 0.00 | 54 | 1009.4 |
| 20260509012804 | 50 | 239 | 5.0 | 9.0 | 0.00 | 0.00 | 0.00 | 54 | 1009.2 |
| 20260509012604 | 50 | 235 | 4.0 | 9.0 | 0.00 | 0.00 | 0.00 | 54 | 1009.0 |
| 20260509012504 | 50 | 233 | 4.0 | 9.0 | 0.00 | 0.00 | 0.00 | 54 | 1009.1 |
| 20260509012404 | 50 | 225 | 2.0 | 6.0 | 0.00 | 0.00 | 0.00 | 54 | 1009.0 |
| 20260509012307 | 50 | 224 | 2.0 | 6.0 | 0.00 | 0.00 | 0.00 | 54 | 1009.1 |
| 20260509012216 | 50 | 225 | 3.0 | 9.0 | 0.00 | 0.00 | 0.00 | 53 | 1009.0 |
| 20260509012204 | 50 | 227 | 3.0 | 9.0 | 0.00 | 0.00 | 0.00 | 53 | 1009.1 |
| 20260509011906 | 50 | 238 | 2.0 | 9.0 | 0.00 | 0.00 | 0.00 | 53 | 1008.7 |
| 20260509011803 | 50 | 249 | 6.0 | 9.0 | 0.00 | 0.00 | 0.00 | 53 | 1008.8 |
| 20260509011704 | 49 | 270 | 4.0 | 7.0 | 0.00 | 0.00 | 0.00 | 53 | 1008.8 |
| 20260509011617 | 49 | 273 | 2.0 | 7.0 | 0.00 | 0.00 | 0.00 | 53 | 1008.5 |
| 20260509011604 | 49 | 272 | 2.0 | 7.0 | 0.00 | 0.00 | 0.00 | 53 | 1008.5 |
| 20260509011504 | 49 | 274 | 3.0 | 7.0 | 0.00 | 0.00 | 0.00 | 53 | 1008.7 |
| 20260509011303 | 49 | 253 | 3.0 | 7.0 | 0.00 | 0.00 | 0.00 | 53 | 1008.6 |
| 20260509011204 | 49 | 238 | 4.0 | 7.0 | 0.00 | 0.00 | 0.00 | 53 | 1008.9 |
| 20260509011103 | 49 | 236 | 2.0 | 6.0 | 0.00 | 0.00 | 0.00 | 53 | 1008.6 |
| 20260509011005 | 49 | 235 | 2.0 | 6.0 | 0.00 | 0.00 | 0.00 | 53 | 1008.8 |
| 20260509010816 | 49 | 236 | 3.0 | 6.0 | 0.00 | 0.00 | 0.00 | 53 | 1008.6 |
| 20260509010704 | 49 | 237 | 3.0 | 6.0 | 0.00 | 0.00 | 0.00 | 52 | 1008.8 |
| 20260509010517 | 49 | 236 | 2.0 | 4.0 | 0.00 | 0.00 | 0.00 | 53 | 1008.6 |
| 20260509010508 | 49 | 238 | 2.0 | 4.0 | 0.00 | 0.00 | 0.00 | 53 | 1008.6 |
| 20260509010403 | 49 | 241 | 2.0 | 4.0 | 0.00 | 0.00 | 0.00 | 52 | 1008.6 |
| 20260509010314 | 49 | 239 | 2.0 | 4.0 | 0.00 | 0.00 | 0.00 | 53 | 1008.6 |
| 20260509010205 | 49 | 243 | 2.0 | 4.0 | 0.00 | 0.00 | 0.00 | 52 | 1008.4 |
| 20260509010007 | 49 | 251 | 3.0 | 4.0 | 0.00 | 0.00 | 0.00 | 53 | 1008.6 |
| 20260509005904 | 49 | 245 | 2.0 | 4.0 | 0.00 | 0.00 | 0.00 | 53 | 1008.8 |
| 20260509005607 | 49 | 243 | 2.0 | 4.0 | 0.00 | 0.00 | 0.00 | 53 | 1008.4 |
| 20260509005503 | 49 | 235 | 2.0 | 4.0 | 0.00 | 0.00 | 0.00 | 53 | 1008.5 |
| 20260509005403 | 49 | 234 | 2.0 | 4.0 | 0.00 | 0.00 | 0.00 | 53 | 1008.3 |
| 20260509005315 | 49 | 231 | 2.0 | 4.0 | 0.00 | 0.00 | 0.00 | 53 | 1008.5 |
| 20260509005306 | 49 | 233 | 2.0 | 4.0 | 0.00 | 0.00 | 0.00 | 53 | 1008.5 |
| 20260509005206 | 49 | 236 | 2.0 | 4.0 | 0.00 | 0.00 | 0.00 | 53 | 1008.4 |
| 20260509005005 | 49 | 240 | 2.0 | 4.0 | 0.00 | 0.00 | 0.00 | 53 | 1008.3 |
| 20260509004905 | 49 | 242 | 2.0 | 4.0 | 0.00 | 0.00 | 0.00 | 53 | 1008.4 |
| 20260509004803 | 49 | 242 | 2.0 | 4.0 | 0.00 | 0.00 | 0.00 | 52 | 1008.5 |
| 20260509004705 | 49 | 242 | 2.0 | 4.0 | 0.00 | 0.00 | 0.00 | 52 | 1008.4 |
| 20260509004615 | 49 | 243 | 1.0 | 4.0 | 0.00 | 0.00 | 0.00 | 53 | 1008.5 |
| 20260509004604 | 49 | 243 | 2.0 | 4.0 | 0.00 | 0.00 | 0.00 | 53 | 1008.2 |
| 20260509004504 | 49 | 250 | 2.0 | 4.0 | 0.00 | 0.00 | 0.00 | 52 | 1008.3 |
| 20260509004305 | 49 | 258 | 2.0 | 2.0 | 0.00 | 0.00 | 0.00 | 53 | 1008.3 |
| 20260509004207 | 49 | 259 | 1.0 | 2.0 | 0.00 | 0.00 | 0.00 | 52 | 1008.4 |
| 20260509004104 | 49 | 259 | 1.0 | 2.0 | 0.00 | 0.00 | 0.00 | 52 | 1008.3 |
| 20260509004004 | 49 | 255 | 1.0 | 2.0 | 0.00 | 0.00 | 0.00 | 52 | 1008.3 |
| 20260509003904 | 49 | 254 | 2.0 | 2.0 | 0.00 | 0.00 | 0.00 | 52 | 1008.5 |
| 20260509003804 | 49 | 253 | 1.0 | 4.0 | 0.00 | 0.00 | 0.00 | 51 | 1007.9 |
| 20260509003705 | 49 | 254 | 2.0 | 4.0 | 0.00 | 0.00 | 0.00 | 51 | 1008.2 |
| 20260509003603 | 49 | 253 | 1.0 | 4.0 | 0.00 | 0.00 | 0.00 | 51 | 1008.2 |
| 20260509003504 | 49 | 252 | 1.0 | 4.0 | 0.00 | 0.00 | 0.00 | 51 | 1008.1 |
| 20260509003404 | 49 | 253 | 2.0 | 4.0 | 0.00 | 0.00 | 0.00 | 50 | 1008.3 |
| 20260509003304 | 49 | 260 | 1.0 | 2.0 | 0.00 | 0.00 | 0.00 | 50 | 1008.1 |
| 20260509003203 | 50 | 265 | 0.0 | 2.0 | 0.00 | 0.00 | 0.00 | 50 | 1008.1 |
| 20260509003104 | 50 | 269 | 0.0 | 2.0 | 0.00 | 0.00 | 0.00 | 50 | 1008.2 |
| 20260509003005 | 50 | 265 | 2.0 | 2.0 | 0.00 | 0.00 | 0.00 | 49 | 1008.1 |
| 20260509002904 | 50 | 267 | 2.0 | 2.0 | 0.00 | 0.00 | 0.00 | 49 | 1008.1 |
| 20260509002809 | 50 | 265 | 1.0 | 2.0 | 0.00 | 0.00 | 0.00 | 49 | 1008.0 |
| 20260509002704 | 50 | 264 | 0.0 | 2.0 | 0.00 | 0.00 | 0.00 | 49 | 1008.0 |
| 20260509002605 | 50 | 257 | 2.0 | 2.0 | 0.00 | 0.00 | 0.00 | 48 | 1008.0 |
| 20260509002515 | 50 | 264 | 2.0 | 2.0 | 0.00 | 0.00 | 0.00 | 48 | 1008.0 |
| 20260509002504 | 50 | 262 | 2.0 | 2.0 | 0.00 | 0.00 | 0.00 | 48 | 1008.0 |
| 20260509002405 | 50 | 258 | 2.0 | 2.0 | 0.00 | 0.00 | 0.00 | 48 | 1007.9 |
| 20260509002216 | 50 | 262 | 2.0 | 2.0 | 0.00 | 0.00 | 0.00 | 48 | 1007.9 |
| 20260509002204 | 50 | 260 | 2.0 | 4.0 | 0.00 | 0.00 | 0.00 | 47 | 1007.9 |
| 20260509002105 | 50 | 248 | 1.0 | 4.0 | 0.00 | 0.00 | 0.00 | 48 | 1007.8 |
| 20260509002013 | 50 | 242 | 2.0 | 4.0 | 0.00 | 0.00 | 0.00 | 48 | 1007.7 |
| 20260509001904 | 50 | 244 | 1.0 | 4.0 | 0.00 | 0.00 | 0.00 | 48 | 1007.8 |
| 20260509001816 | 50 | 236 | 1.0 | 4.0 | 0.00 | 0.00 | 0.00 | 47 | 1007.8 |
| 20260509001704 | 50 | 236 | 2.0 | 4.0 | 0.00 | 0.00 | 0.00 | 47 | 1008.0 |
| 20260509001503 | 50 | 232 | 3.0 | 4.0 | 0.00 | 0.00 | 0.00 | 47 | 1007.8 |
| 20260509001404 | 50 | 228 | 2.0 | 4.0 | 0.00 | 0.00 | 0.00 | 47 | 1007.9 |
| 20260509001310 | 50 | 228 | 2.0 | 4.0 | 0.00 | 0.00 | 0.00 | 47 | 1007.7 |
| 20260509001205 | 50 | 226 | 2.0 | 4.0 | 0.00 | 0.00 | 0.00 | 47 | 1008.0 |
| 20260509001104 | 50 | 224 | 2.0 | 4.0 | 0.00 | 0.00 | 0.00 | 48 | 1007.9 |
| 20260509001003 | 50 | 228 | 2.0 | 4.0 | 0.00 | 0.00 | 0.00 | 48 | 1007.5 |
| 20260509000904 | 50 | 236 | 1.0 | 4.0 | 0.00 | 0.00 | 0.00 | 49 | 1007.8 |
| 20260509000703 | 50 | 235 | 1.0 | 4.0 | 0.00 | 0.00 | 0.00 | 48 | 1007.8 |
| 20260509000605 | 50 | 210 | 2.0 | 7.0 | 0.00 | 0.00 | 0.00 | 48 | 1007.7 |
| 20260509000517 | 50 | 217 | 2.0 | 7.0 | 0.00 | 0.00 | 0.00 | 48 | 1007.5 |
| 20260509000503 | 50 | 213 | 2.0 | 7.0 | 0.00 | 0.00 | 0.00 | 48 | 1007.5 |
| 20260509000405 | 50 | 210 | 2.0 | 7.0 | 0.00 | 0.00 | 0.00 | 48 | 1007.6 |
| 20260509000104 | 50 | 229 | 2.0 | 4.0 | 0.00 | 0.00 | 0.00 | 49 | 1007.6 |
| 20260509000004 | 50 | 229 | 2.0 | 4.0 | 0.00 | 0.00 | 0.00 | 50 | 1007.5 |
| 20260508235903 | 50 | 228 | 2.0 | 4.0 | 0.00 | 0.00 | 0.00 | 51 | 1007.6 |
| 20260508235803 | 50 | 225 | 1.0 | 2.0 | 0.00 | 0.00 | 0.00 | 52 | 1007.6 |
| 20260508235704 | 50 | 225 | 0.0 | 2.0 | 0.00 | 0.00 | 0.00 | 52 | 1007.5 |
| 20260508235603 | 50 | 225 | 0.0 | 2.0 | 0.00 | 0.00 | 0.00 | 52 | 1007.5 |
| 20260508235503 | 50 | 225 | 0.0 | 2.0 | 0.00 | 0.00 | 0.00 | 52 | 1007.4 |
| 20260508235403 | 50 | 227 | 0.0 | 2.0 | 0.00 | 0.00 | 0.00 | 51 | 1007.4 |
| 20260508235306 | 49 | 229 | 0.0 | 2.0 | 0.00 | 0.00 | 0.00 | 51 | 1007.3 |
| 20260508235204 | 49 | 232 | 1.0 | 2.0 | 0.00 | 0.00 | 0.00 | 50 | 1007.3 |
| 20260508235103 | 49 | 236 | 0.0 | 2.0 | 0.00 | 0.00 | 0.00 | 50 | 1007.3 |
| 20260508235007 | 50 | 240 | 2.0 | 2.0 | 0.00 | 0.00 | 0.00 | 49 | 1007.3 |
| 20260508234905 | 50 | 246 | 1.0 | 2.0 | 0.00 | 0.00 | 0.00 | 50 | 1007.1 |
| 20260508234804 | 50 | 255 | 1.0 | 2.0 | 0.00 | 0.00 | 0.00 | 50 | 1007.3 |
| 20260508234705 | 50 | 256 | 1.0 | 2.0 | 0.00 | 0.00 | 0.00 | 50 | 1006.9 |
| 20260508234604 | 50 | 258 | 2.0 | 2.0 | 0.00 | 0.00 | 0.00 | 49 | 1006.7 |
| 20260508234504 | 50 | 268 | 0.0 | 2.0 | 0.00 | 0.00 | 0.00 | 50 | 1007.2 |
| 20260508234405 | 50 | 272 | 0.0 | 2.0 | 0.00 | 0.00 | 0.00 | 50 | 1006.8 |
| 20260508234304 | 50 | 269 | 1.0 | 2.0 | 0.00 | 0.00 | 0.00 | 48 | 1006.8 |
| 20260508234207 | 50 | 275 | 0.0 | 2.0 | 0.00 | 0.00 | 0.00 | 48 | 1007.1 |
| 20260508234103 | 50 | 273 | 0.0 | 4.0 | 0.00 | 0.00 | 0.00 | 48 | 1006.6 |
| 20260508234003 | 50 | 274 | 0.0 | 4.0 | 0.00 | 0.00 | 0.00 | 47 | 1006.8 |
| 20260508233803 | 50 | 288 | 1.0 | 4.0 | 0.00 | 0.00 | 0.00 | 47 | 1006.8 |
| 20260508233707 | 50 | 292 | 0.0 | 4.0 | 0.00 | 0.00 | 0.00 | 47 | 1007.2 |
| 20260508233604 | 50 | 289 | 2.0 | 4.0 | 0.00 | 0.00 | 0.00 | 46 | 1006.8 |
| 20260508233504 | 50 | 288 | 2.0 | 2.0 | 0.00 | 0.00 | 0.00 | 46 | 1006.9 |
| 20260508233404 | 50 | 278 | 0.0 | 2.0 | 0.00 | 0.00 | 0.00 | 47 | 1007.0 |
| 20260508233206 | 51 | 265 | 1.0 | 2.0 | 0.00 | 0.00 | 0.00 | 47 | 1006.9 |
| 20260508233105 | 51 | 268 | 2.0 | 2.0 | 0.00 | 0.00 | 0.00 | 47 | 1006.7 |
| 20260508233018 | 51 | 270 | 1.0 | 2.0 | 0.00 | 0.00 | 0.00 | 47 | 1007.0 |
| 20260508233003 | 51 | 268 | 2.0 | 2.0 | 0.00 | 0.00 | 0.00 | 47 | 1007.0 |
| 20260508232903 | 51 | 258 | 0.0 | 2.0 | 0.00 | 0.00 | 0.00 | 47 | 1007.0 |
| 20260508232815 | 51 | 252 | 1.0 | 2.0 | 0.00 | 0.00 | 0.00 | 47 | 1006.7 |
| 20260508232705 | 51 | 247 | 0.0 | 2.0 | 0.00 | 0.00 | 0.00 | 49 | 1006.8 |
| 20260508232505 | 51 | 247 | 0.0 | 2.0 | 0.00 | 0.00 | 0.00 | 47 | 1006.8 |
| 20260508232403 | 51 | 247 | 1.0 | 2.0 | 0.00 | 0.00 | 0.00 | 46 | 1006.9 |
| 20260508232318 | 51 | 247 | 0.0 | 2.0 | 0.00 | 0.00 | 0.00 | 47 | 1007.0 |
| 20260508232203 | 51 | 247 | 1.0 | 2.0 | 0.00 | 0.00 | 0.00 | 46 | 1006.8 |
| 20260508232004 | 51 | 247 | 1.0 | 2.0 | 0.00 | 0.00 | 0.00 | 46 | 1006.8 |
| 20260508231905 | 51 | 251 | 1.0 | 2.0 | 0.00 | 0.00 | 0.00 | 47 | 1007.0 |
| 20260508231803 | 51 | 268 | 1.0 | 2.0 | 0.00 | 0.00 | 0.00 | 47 | 1006.9 |
| 20260508231703 | 51 | 278 | 0.0 | 2.0 | 0.00 | 0.00 | 0.00 | 48 | 1006.7 |
| 20260508231605 | 51 | 278 | 0.0 | 2.0 | 0.00 | 0.00 | 0.00 | 48 | 1006.8 |
| 20260508231504 | 51 | 286 | 1.0 | 2.0 | 0.00 | 0.00 | 0.00 | 46 | 1006.5 |
| 20260508231407 | 51 | 302 | 1.0 | 2.0 | 0.00 | 0.00 | 0.00 | 46 | 1006.8 |
| 20260508231203 | 52 | 279 | 0.0 | 2.0 | 0.00 | 0.00 | 0.00 | 47 | 1006.7 |
| 20260508231104 | 52 | 269 | 0.0 | 2.0 | 0.00 | 0.00 | 0.00 | 46 | 1006.8 |
| 20260508231005 | 52 | 263 | 0.0 | 2.0 | 0.00 | 0.00 | 0.00 | 45 | 1006.7 |
| 20260508230904 | 52 | 257 | 1.0 | 2.0 | 0.00 | 0.00 | 0.00 | 44 | 1006.7 |
| 20260508230805 | 52 | 249 | 0.0 | 2.0 | 0.00 | 0.00 | 0.00 | 43 | 1007.0 |
| 20260508230704 | 52 | 246 | 1.0 | 2.0 | 0.00 | 0.00 | 0.00 | 43 | 1006.8 |
| 20260508230606 | 52 | 240 | 1.0 | 2.0 | 0.00 | 0.00 | 0.00 | 43 | 1006.9 |
| 20260508230503 | 52 | 242 | 1.0 | 2.0 | 0.00 | 0.00 | 0.00 | 43 | 1006.7 |
| 20260508230404 | 52 | 240 | 1.0 | 2.0 | 0.00 | 0.00 | 0.00 | 42 | 1006.8 |
| 20260508230303 | 52 | 240 | 2.0 | 2.0 | 0.00 | 0.00 | 0.00 | 42 | 1006.8 |
| 20260508230205 | 52 | 240 | 2.0 | 2.0 | 0.00 | 0.00 | 0.00 | 42 | 1006.7 |
| 20260508230105 | 52 | 244 | 2.0 | 2.0 | 0.00 | 0.00 | 0.00 | 42 | 1006.8 |
| 20260508230005 | 52 | 244 | 1.0 | 2.0 | 0.00 | 0.00 | 0.00 | 42 | 1006.8 |
| 20260508225914 | 52 | 246 | 2.0 | 2.0 | 0.00 | 0.00 | 0.00 | 42 | 1006.6 |
| 20260508225804 | 52 | 247 | 2.0 | 4.0 | 0.00 | 0.00 | 0.00 | 42 | 1006.7 |
| 20260508225717 | 52 | 247 | 1.0 | 4.0 | 0.00 | 0.00 | 0.00 | 42 | 1006.5 |
| 20260508225604 | 52 | 247 | 2.0 | 4.0 | 0.00 | 0.00 | 0.00 | 42 | 1006.5 |
| 20260508225514 | 52 | 247 | 2.0 | 4.0 | 0.00 | 0.00 | 0.00 | 42 | 1006.7 |
| 20260508225417 | 52 | 254 | 2.0 | 4.0 | 0.00 | 0.00 | 0.00 | 42 | 1006.6 |
| 20260508225404 | 52 | 256 | 2.0 | 4.0 | 0.00 | 0.00 | 0.00 | 42 | 1006.8 |
| 20260508225104 | 53 | 260 | 2.0 | 4.0 | 0.00 | 0.00 | 0.00 | 42 | 1006.8 |
| 20260508225004 | 53 | 260 | 2.0 | 4.0 | 0.00 | 0.00 | 0.00 | 42 | 1006.8 |
| 20260508224805 | 53 | 243 | 2.0 | 4.0 | 0.00 | 0.00 | 0.00 | 41 | 1006.7 |